Laatste waarneming: 20:09
Temperatuur:12,4°C
Dauwpunt:7,7°C
Rel. vocht:73,2%
Natte-bol:10,2°C
Wind (gem. 10 min.):3,6 m/s
Wind (max. 10 min.):1.7E+308 m/s
Windrichting:11°
Neerslagsom:0,0 mm
Neerslagintensiteit:0,0 mm/u
Luchtdruk:1022,6 hPa
Straling:26,0 W/m2
 
Maximumtemp.:13,5°C (12:09)
Minimumtemp.:10,6°C (05:14)
Hoogste windstoot:9,4 m/s (17:21)


Bekijk de verwachting.

Bekijk de grafieken.
Bekijk het maandoverzicht.
Bekijk het jaaroverzicht.
Dagtabel
Tijd Temp. Dauwp. Natte-bol Rel. Hum. Windsnelh. Windricht. Windstoot Neerslag Straling Luchtdruk
 
20:09 12,4 7,7 10,2 73,2 3,6 11 - 0,0 26 1.022,6
20:08 12,4 7,9 10,3 74,0 3,6 7 - 0,0 26 1.022,7
20:07 12,4 7,8 10,3 73,5 3,8 5 - 0,0 28 1.022,7
20:06 12,4 7,8 10,3 73,7 4,3 3 - 0,0 28 1.022,8
20:05 12,4 8,1 10,4 74,8 4,2 0 - 0,0 31 1.022,7
20:04 12,4 8,1 10,4 75,0 3,9 0 - 0,0 32 1.022,7
20:03 12,4 8,2 10,5 75,3 3,7 359 - 0,0 33 1.022,7
20:02 12,4 8,2 10,5 75,7 3,9 359 - 0,0 33 1.022,8
20:01 12,4 8,1 10,4 75,0 4,7 359 - 0,0 33 1.022,8
20:00 12,4 8,1 10,4 75,0 5,7 0 - 0,0 32 1.022,7
 
19:59 12,5 8,2 10,5 75,0 6,3 1 - 0,0 30 1.022,7
19:58 12,5 8,2 10,5 75,0 5,4 2 - 0,0 30 1.022,6
19:57 12,5 8,2 10,5 75,3 4,8 3 - 0,0 31 1.022,6
19:56 12,6 8,6 10,8 76,4 4,9 6 - 0,0 32 1.022,6
19:55 12,6 8,7 10,8 77,0 5,4 7 - 0,0 32 1.022,7
19:54 12,6 8,7 10,8 77,0 5,2 6 - 0,0 30 1.022,6
19:53 12,7 8,6 10,8 76,2 5,2 6 - 0,0 29 1.022,6
19:52 12,7 8,6 10,8 76,0 5,3 6 - 0,0 28 1.022,5
19:51 12,7 8,6 10,8 76,0 5,5 7 - 0,0 28 1.022,6
19:50 12,7 8,6 10,8 76,0 5,0 8 - 0,0 28 1.022,5
19:49 12,7 8,5 10,8 75,5 4,6 10 - 0,0 28 1.022,5
19:48 12,7 8,4 10,7 75,0 4,1 13 - 0,0 29 1.022,6
19:47 12,7 8,2 10,6 74,2 4,2 16 - 0,0 32 1.022,6
19:46 12,7 8,0 10,5 73,1 4,2 20 - 0,0 32 1.022,5
19:45 12,6 7,9 10,4 73,0 4,0 23 - 0,0 33 1.022,6
19:44 12,6 7,9 10,4 73,0 3,6 24 - 0,0 35 1.022,6
19:43 12,6 7,9 10,4 73,0 4,1 22 - 0,0 39 1.022,5
19:42 12,6 7,9 10,4 73,0 4,7 19 - 0,0 39 1.022,6
19:41 12,6 7,9 10,4 73,0 4,8 15 - 0,0 37 1.022,6
19:40 12,6 7,9 10,4 73,0 4,3 11 - 0,0 38 1.022,6
19:39 12,6 7,9 10,4 73,3 4,6 8 - 0,0 44 1.022,5
19:38 12,6 8,0 10,5 73,6 5,0 8 - 0,0 47 1.022,6
19:37 12,6 7,9 10,4 73,0 4,2 10 - 0,0 47 1.022,6
19:36 12,6 7,9 10,4 73,0 4,0 14 - 0,0 48 1.022,6
19:35 12,5 7,9 10,3 73,4 4,3 21 - 0,0 53 1.022,6
19:34 12,6 8,3 10,6 75,0 4,9 28 - 0,0 60 1.022,7
19:33 12,6 8,3 10,6 75,0 5,0 32 - 0,0 62 1.022,6
19:32 12,6 8,3 10,6 75,0 4,4 30 - 0,0 57 1.022,6
19:31 12,6 8,3 10,6 75,0 4,8 23 - 0,0 53 1.022,6
19:30 12,6 8,3 10,6 75,0 4,8 13 - 0,0 49 1.022,6
19:29 12,6 8,5 10,7 75,9 5,9 1 - 0,0 48 1.022,6
19:28 12,6 8,3 10,6 75,2 6,3 350 - 0,0 52 1.022,6
19:27 12,6 8,4 10,7 75,7 6,2 342 - 0,0 57 1.022,6
19:26 12,6 8,4 10,7 75,5 6,4 338 - 0,0 58 1.022,5
19:25 12,6 8,6 10,8 76,7 6,5 338 - 0,0 55 1.022,6
19:24 12,6 8,4 10,7 75,4 6,1 341 - 0,0 51 1.022,7
19:23 12,6 8,3 10,6 75,0 5,2 345 - 0,0 50 1.022,7
19:22 12,6 8,3 10,6 75,3 5,0 349 - 0,0 47 1.022,7
19:21 12,7 8,5 10,8 75,7 5,1 354 - 0,0 43 1.022,6
19:20 12,7 8,5 10,8 75,5 5,1 357 - 0,0 40 1.022,7
19:19 12,7 8,5 10,8 75,4 4,6 0 - 0,0 39 1.022,7
19:18 12,6 8,3 10,6 75,0 4,0 2 - 0,0 38 1.022,7
19:17 12,6 8,3 10,6 74,9 3,7 3 - 0,0 39 1.022,7
19:16 12,6 8,1 10,5 74,0 4,0 3 - 0,0 40 1.022,7
19:15 12,6 8,1 10,5 74,0 4,3 2 - 0,0 43 1.022,8
19:14 12,6 8,1 10,5 74,0 4,6 2 - 0,0 46 1.022,8
19:13 12,6 8,1 10,5 74,0 5,1 4 - 0,0 48 1.022,8
19:12 12,6 8,1 10,5 74,0 4,9 7 - 0,0 52 1.022,9
19:11 12,6 8,3 10,6 75,0 4,7 13 - 0,0 54 1.022,8
19:10 12,6 8,3 10,6 75,0 5,0 20 - 0,0 54 1.022,8
19:09 12,6 8,4 10,7 75,4 4,3 26 - 0,0 57 1.022,8
19:08 12,6 8,5 10,7 76,0 3,8 27 - 0,0 62 1.022,9
19:07 12,6 8,5 10,7 76,0 4,2 24 - 0,0 62 1.022,9
19:06 12,6 8,5 10,7 76,0 4,3 18 - 0,0 62 1.022,8
19:05 12,6 8,5 10,7 75,9 4,3 11 - 0,0 63 1.022,9
19:04 12,6 8,3 10,6 75,3 4,4 4 - 0,0 63 1.022,8
19:03 12,6 8,5 10,7 76,0 3,8 357 - 0,0 63 1.022,9
19:02 12,6 8,5 10,7 76,0 4,2 353 - 0,0 65 1.022,9
19:01 12,6 8,5 10,7 76,0 5,2 351 - 0,0 67 1.022,8
19:00 12,6 8,7 10,8 76,9 6,8 349 - 0,0 64 1.022,8
 
18:59 12,7 8,8 10,9 77,0 6,7 347 - 0,0 62 1.022,8
18:58 12,7 8,8 10,9 77,0 6,3 345 - 0,0 62 1.022,9
18:57 12,7 8,8 10,9 77,0 6,4 344 - 0,0 62 1.022,8
18:56 12,8 9,0 11,1 77,6 7,0 343 - 0,0 63 1.022,8
18:55 12,8 8,9 11,1 77,3 7,1 343 - 0,0 63 1.022,7
18:54 12,8 8,9 11,0 77,0 6,6 343 - 0,0 62 1.022,8
18:53 12,8 8,7 10,9 76,0 6,1 342 - 0,0 63 1.022,8
18:52 12,8 8,8 11,0 76,4 6,1 341 - 0,0 64 1.022,7
18:51 12,9 9,0 11,1 77,0 6,5 340 - 0,0 67 1.022,8
18:50 12,9 8,8 11,1 76,4 6,5 340 - 0,0 69 1.022,8
18:49 12,8 8,7 10,9 76,0 6,2 339 - 0,0 71 1.022,7
18:48 12,8 8,5 10,8 75,1 6,0 340 - 0,0 73 1.022,8
18:47 12,8 8,5 10,8 75,0 5,7 340 - 0,0 76 1.022,8
18:46 12,8 8,5 10,8 75,0 5,1 341 - 0,0 81 1.022,9
18:45 12,8 8,6 10,9 75,5 5,0 341 - 0,0 89 1.022,9
18:44 12,8 8,6 10,9 75,4 5,4 342 - 0,0 94 1.022,8
18:43 12,8 8,6 10,9 75,8 5,6 341 - 0,0 97 1.022,9
18:42 12,8 8,7 10,9 76,0 5,5 340 - 0,0 99 1.022,9
18:41 12,8 8,7 10,9 76,0 5,4 338 - 0,0 99 1.022,9
18:40 12,8 8,7 10,9 76,0 5,5 336 - 0,0 97 1.022,9
18:39 12,8 8,6 10,9 75,5 5,9 335 - 0,0 102 1.022,9
18:38 12,8 8,5 10,8 75,0 6,7 334 - 0,0 110 1.022,9
18:37 12,8 8,5 10,8 75,0 7,2 334 - 0,0 113 1.022,9
18:36 12,8 8,7 10,9 76,0 7,2 334 - 0,0 114 1.022,9
18:35 12,8 8,7 10,9 76,0 6,5 335 - 0,0 111 1.022,9
18:34 12,8 8,6 10,9 75,5 5,9 337 - 0,0 109 1.023,0
18:33 12,8 8,6 10,9 75,6 5,6 339 - 0,0 114 1.022,9
18:32 12,8 8,7 10,9 76,0 5,7 342 - 0,0 114 1.023,0
18:31 12,8 8,7 10,9 76,0 5,6 343 - 0,0 117 1.022,9
18:30 12,8 8,8 11,0 76,9 5,3 345 - 0,0 117 1.023,0
18:29 12,7 8,5 10,8 75,8 5,1 346 - 0,0 115 1.023,0
18:28 12,7 8,4 10,7 75,0 5,3 345 - 0,0 119 1.022,9
18:27 12,7 8,4 10,7 75,0 5,8 343 - 0,0 123 1.023,0
18:26 12,8 8,6 10,9 75,7 6,3 342 - 0,0 119 1.022,9
18:25 12,8 8,7 10,9 76,0 6,7 342 - 0,0 114 1.022,9
18:24 12,8 8,9 11,0 77,0 6,4 343 - 0,0 107 1.023,0
18:23 12,8 8,8 11,0 76,7 5,9 345 - 0,0 100 1.023,0
18:22 12,8 8,8 11,0 76,5 5,7 347 - 0,0 92 1.023,0
18:21 12,8 8,9 11,0 77,0 5,8 349 - 0,0 88 1.023,0
18:20 12,8 8,9 11,0 77,0 5,8 352 - 0,0 88 1.023,0
18:19 12,9 9,1 11,2 77,9 5,7 353 - 0,0 87 1.023,0
18:18 12,9 9,2 11,2 78,0 5,4 353 - 0,0 84 1.023,0
18:17 12,9 9,1 11,2 77,7 5,3 352 - 0,0 83 1.023,1
18:16 12,9 9,0 11,1 77,0 5,5 350 - 0,0 83 1.023,1
18:15 12,9 9,0 11,1 77,0 5,9 347 - 0,0 83 1.023,1
18:14 12,9 9,1 11,2 77,8 6,0 345 - 0,0 88 1.023,1
18:13 12,9 9,0 11,1 77,1 5,9 343 - 0,0 97 1.023,1
18:12 12,9 9,0 11,1 77,0 5,6 343 - 0,0 107 1.023,1
18:11 12,9 9,0 11,1 77,0 5,3 343 - 0,0 116 1.023,1
18:10 12,9 9,0 11,1 77,0 5,3 343 - 0,0 118 1.023,1
18:09 12,9 9,0 11,1 77,0 5,5 343 - 0,0 108 1.023,0
18:08 12,9 9,0 11,1 77,0 5,5 343 - 0,0 96 1.023,1
18:07 12,9 8,8 11,0 76,1 5,6 342 - 0,0 90 1.023,1
18:06 13,0 8,9 11,1 76,2 5,5 342 - 0,0 94 1.023,1
18:05 13,0 9,1 11,2 77,0 5,4 343 - 0,0 107 1.023,1
18:04 13,0 9,1 11,2 77,0 5,3 346 - 0,0 111 1.023,1
18:03 13,0 9,1 11,2 77,0 4,7 352 - 0,0 110 1.023,1
18:02 13,0 9,1 11,2 77,0 4,6 358 - 0,0 99 1.023,1
18:01 13,0 9,1 11,2 77,0 4,5 3 - 0,0 91 1.023,1
18:00 13,1 9,2 11,3 77,0 5,3 5 - 0,0 86 1.023,1
 
17:59 13,1 9,2 11,3 77,0 5,7 4 - 0,0 83 1.023,1
17:58 13,0 9,0 11,2 76,5 5,2 0 - 0,0 84 1.023,1
17:57 13,0 8,9 11,1 76,0 4,8 355 - 0,0 91 1.023,0
17:56 13,0 8,7 11,0 75,2 4,8 349 - 0,0 98 1.023,1
17:55 13,0 8,7 11,0 75,0 4,6 345 - 0,0 101 1.023,1
17:54 13,0 8,7 11,0 75,0 4,7 344 - 0,0 106 1.023,1
17:53 13,0 8,7 11,0 75,0 5,0 345 - 0,0 120 1.023,0
17:52 13,0 8,7 11,0 75,0 5,4 347 - 0,0 134 1.023,1
17:51 13,0 8,7 11,0 75,0 5,8 350 - 0,0 134 1.023,1
17:50 13,1 8,8 11,1 75,0 5,6 352 - 0,0 126 1.023,1
17:49 13,0 8,7 11,0 75,0 4,9 353 - 0,0 117 1.023,2
17:48 13,0 8,7 11,0 75,0 4,5 353 - 0,0 112 1.023,2
17:47 13,0 8,7 11,0 75,0 4,6 352 - 0,0 113 1.023,1
17:46 13,0 8,8 11,1 75,6 4,7 353 - 0,0 118 1.023,2
17:45 13,0 8,9 11,1 76,0 4,5 351 - 0,0 127 1.023,2
17:44 13,0 8,9 11,1 76,0 4,4 348 - 0,0 138 1.023,2
17:43 13,0 8,7 11,0 75,2 4,6 344 - 0,0 148 1.023,2
17:42 13,0 8,9 11,1 76,3 5,1 341 - 0,0 151 1.023,2
17:41 13,0 9,0 11,2 76,6 5,9 339 - 0,0 151 1.023,2
17:40 13,0 8,9 11,1 76,0 5,6 337 - 0,0 153 1.023,2
17:39 13,0 9,0 11,2 76,8 5,6 337 - 0,0 153 1.023,2
17:38 13,0 9,1 11,2 77,0 5,4 339 - 0,0 152 1.023,2
17:37 13,0 8,9 11,1 76,1 5,3 341 - 0,0 150 1.023,1
17:31 12,9 8,8 11,0 76,2 5,7 342 - 0,0 164 1.023,3
17:30 12,9 9,0 11,1 77,0 6,3 341 - 0,0 173 1.023,2
17:29 13,0 9,2 11,3 77,5 6,5 339 - 0,0 176 1.023,3
17:28 13,0 9,3 11,3 78,0 6,6 336 - 0,0 178 1.023,3
17:27 12,9 8,8 11,1 76,4 6,5 332 - 0,0 181 1.023,2
17:26 12,9 8,8 11,0 76,0 6,6 328 - 0,0 177 1.023,3
17:25 13,0 8,9 11,1 76,2 6,7 325 - 0,0 171 1.023,3
17:24 13,0 9,0 11,2 76,7 7,0 324 - 0,0 165 1.023,3
17:23 13,0 8,9 11,1 76,0 7,2 324 - 0,0 161 1.023,3
17:22 13,1 9,1 11,3 76,7 7,4 325 - 0,0 159 1.023,3
17:21 13,1 9,2 11,3 77,0 7,2 327 - 0,0 163 1.023,3
17:20 13,1 9,0 11,2 76,1 6,9 330 - 0,0 163 1.023,2
17:19 13,1 9,0 11,2 76,0 6,5 331 - 0,0 155 1.023,3
17:18 13,1 9,0 11,2 76,0 6,5 331 - 0,0 151 1.023,3
17:17 13,2 9,2 11,4 76,6 6,4 330 - 0,0 143 1.023,3
17:16 13,2 9,1 11,4 76,4 5,0 330 - 0,0 135 1.023,3
17:15 13,2 8,9 11,2 75,2 3,9 329 - 0,0 138 1.023,3
17:14 13,2 8,9 11,2 75,0 4,1 329 - 0,0 153 1.023,3
17:13 13,3 9,0 11,3 75,3 6,0 330 - 0,0 170 1.023,3
17:12 13,3 9,1 11,3 75,5 6,4 332 - 0,0 184 1.023,3
17:11 13,3 8,9 11,2 74,5 6,5 333 - 0,0 198 1.023,3
17:10 13,3 8,8 11,2 74,0 6,3 333 - 0,0 216 1.023,3
17:09 13,2 8,8 11,2 74,7 6,2 333 - 0,0 232 1.023,3
17:08 13,2 8,7 11,1 74,0 6,1 332 - 0,0 242 1.023,3
17:07 13,2 8,7 11,1 74,4 6,0 331 - 0,0 254 1.023,3
17:06 13,2 8,9 11,2 75,0 6,0 330 - 0,0 262 1.023,3
17:05 13,2 8,9 11,2 75,0 6,1 328 - 0,0 272 1.023,3
17:04 13,2 8,9 11,2 75,0 6,1 325 - 0,0 279 1.023,3
17:03 13,2 8,9 11,2 75,0 6,0 322 - 0,0 276 1.023,3
17:02 13,2 9,0 11,3 75,8 5,7 321 - 0,0 262 1.023,3
17:01 13,2 8,9 11,2 75,0 5,6 321 - 0,0 249 1.023,3
17:00 13,2 8,9 11,2 75,0 5,6 322 - 0,0 240 1.023,3
 
16:59 13,2 8,9 11,2 75,0 5,8 324 - 0,0 226 1.023,3
16:58 13,2 9,0 11,3 75,8 6,0 326 - 0,0 226 1.023,3
16:57 13,2 8,9 11,2 75,3 6,4 329 - 0,0 234 1.023,3
16:56 13,3 9,2 11,4 76,0 6,6 330 - 0,0 254 1.023,3
16:55 13,3 9,2 11,4 76,0 6,6 331 - 0,0 280 1.023,4
16:54 13,3 9,3 11,5 76,7 6,3 332 - 0,0 288 1.023,4
16:53 13,2 9,3 11,4 77,0 6,1 332 - 0,0 263 1.023,4
16:52 13,2 9,1 11,3 76,3 6,1 331 - 0,0 253 1.023,4
16:51 13,2 8,9 11,2 75,2 6,2 332 - 0,0 230 1.023,3
16:50 13,2 9,1 11,3 76,0 6,3 332 - 0,0 232 1.023,3
16:49 13,2 9,0 11,3 75,7 6,3 333 - 0,0 268 1.023,4
16:48 13,2 9,0 11,2 75,5 6,3 333 - 0,0 283 1.023,4
16:47 13,2 9,2 11,4 76,7 6,4 335 - 0,0 310 1.023,4
16:46 13,2 9,3 11,4 77,0 6,2 338 - 0,0 291 1.023,4
16:45 13,2 9,1 11,3 76,1 6,2 340 - 0,0 273 1.023,4
16:44 13,3 9,2 11,4 76,0 6,4 343 - 0,0 257 1.023,4
16:43 13,2 9,1 11,3 76,0 6,3 345 - 0,0 236 1.023,4
16:42 13,2 9,1 11,3 76,0 5,2 347 - 0,0 218 1.023,5
16:41 13,1 9,0 11,2 76,0 4,5 348 - 0,0 211 1.023,5
16:40 13,1 9,0 11,2 76,0 4,6 346 - 0,0 205 1.023,5
16:39 13,1 9,0 11,2 76,0 5,1 344 - 0,0 192 1.023,5
16:38 13,2 9,1 11,3 76,0 5,6 341 - 0,0 183 1.023,5
16:37 13,2 9,1 11,3 76,0 6,3 337 - 0,0 180 1.023,4
16:36 13,3 9,3 11,5 76,7 6,2 335 - 0,0 181 1.023,5
16:35 13,3 9,4 11,5 77,0 5,9 333 - 0,0 186 1.023,5
16:34 13,2 9,1 11,3 76,2 5,7 335 - 0,0 180 1.023,5
16:33 13,2 9,1 11,3 76,0 5,3 339 - 0,0 165 1.023,5
16:32 13,2 9,1 11,3 76,0 5,0 345 - 0,0 164 1.023,5
16:31 13,2 9,1 11,4 76,4 5,4 352 - 0,0 166 1.023,5
16:30 13,3 9,4 11,5 77,0 4,9 356 - 0,0 169 1.023,5
16:29 13,3 9,5 11,6 77,7 4,8 357 - 0,0 181 1.023,5
16:28 13,2 9,6 11,6 78,9 4,7 353 - 0,0 199 1.023,5
16:27 13,2 9,5 11,5 78,1 5,7 347 - 0,0 199 1.023,5
16:26 13,2 9,4 11,5 77,6 6,0 341 - 0,0 195 1.023,5
16:25 13,2 9,3 11,4 77,0 6,3 337 - 0,0 189 1.023,5
16:24 13,2 9,4 11,5 77,6 6,3 335 - 0,0 190 1.023,6
16:23 13,2 9,4 11,5 78,0 6,2 336 - 0,0 204 1.023,5
16:22 13,2 9,4 11,5 78,0 6,2 338 - 0,0 216 1.023,6
16:21 13,3 9,5 11,6 78,0 6,4 339 - 0,0 224 1.023,6
16:20 13,3 9,6 11,7 78,3 6,5 340 - 0,0 230 1.023,5
16:19 13,3 9,7 11,7 78,6 6,3 341 - 0,0 236 1.023,6
16:18 13,3 9,7 11,7 78,6 6,4 342 - 0,0 250 1.023,6
16:17 13,3 9,6 11,7 78,3 6,4 341 - 0,0 252 1.023,5
16:16 13,3 9,7 11,7 78,7 6,6 339 - 0,0 257 1.023,5
16:15 13,3 9,5 11,6 78,0 6,3 338 - 0,0 257 1.023,6
16:14 13,3 9,6 11,7 78,3 6,4 338 - 0,0 249 1.023,6
16:13 13,3 9,7 11,7 78,6 6,2 338 - 0,0 238 1.023,6
16:12 13,2 9,6 11,6 78,6 5,9 338 - 0,0 225 1.023,7
16:11 13,2 9,6 11,6 79,0 6,0 339 - 0,0 215 1.023,6
16:10 13,2 9,6 11,6 79,0 5,9 341 - 0,0 211 1.023,6
16:09 13,2 9,7 11,7 79,2 5,9 342 - 0,0 203 1.023,6
16:08 13,2 9,8 11,8 80,0 5,6 343 - 0,0 199 1.023,6
16:07 13,1 9,7 11,7 80,0 5,5 344 - 0,0 199 1.023,6
16:06 13,1 9,9 11,7 80,7 5,6 345 - 0,0 192 1.023,6
16:05 13,0 9,8 11,7 81,0 6,1 343 - 0,0 180 1.023,6
16:04 13,0 9,8 11,7 81,0 6,1 340 - 0,0 165 1.023,6
16:03 12,9 9,8 11,6 81,2 5,6 336 - 0,0 154 1.023,6
16:02 12,9 9,8 11,6 81,7 6,0 332 - 0,0 153 1.023,6
16:01 12,9 9,7 11,6 81,0 6,1 329 - 0,0 151 1.023,6
16:00 12,9 9,9 11,7 81,8 6,1 327 - 0,0 143 1.023,7
 
15:59 13,0 9,9 11,7 81,2 6,1 329 - 0,0 134 1.023,7
15:58 13,0 9,8 11,7 81,0 5,8 332 - 0,0 135 1.023,6
15:57 13,1 10,0 11,8 81,3 5,4 336 - 0,0 135 1.023,7
15:56 13,1 10,0 11,8 81,6 5,3 339 - 0,0 130 1.023,7
15:55 13,1 9,9 11,8 81,0 5,3 341 - 0,0 124 1.023,7
15:54 13,1 9,8 11,7 80,4 5,4 340 - 0,0 121 1.023,6
15:53 13,1 9,7 11,7 80,0 5,4 339 - 0,0 121 1.023,7
15:52 13,1 9,7 11,7 80,0 4,2 338 - 0,0 124 1.023,7
15:51 13,2 9,8 11,8 80,0 4,6 337 - 0,0 133 1.023,6
15:50 13,2 9,8 11,8 80,0 5,5 337 - 0,0 145 1.023,7
15:49 13,2 9,8 11,8 80,0 6,6 338 - 0,0 153 1.023,6
15:48 13,2 9,8 11,8 80,0 6,2 340 - 0,0 168 1.023,6
15:47 13,2 9,8 11,8 80,0 6,1 342 - 0,0 184 1.023,6
15:46 13,3 9,9 11,9 80,0 6,1 343 - 0,0 200 1.023,6
15:45 13,3 10,0 11,9 80,5 6,3 342 - 0,0 214 1.023,6
15:44 13,3 10,1 12,0 81,0 6,4 342 - 0,0 229 1.023,6
15:43 13,3 10,0 11,9 80,5 6,4 340 - 0,0 230 1.023,6
15:42 13,3 10,1 11,9 80,7 6,2 339 - 0,0 216 1.023,5
15:41 13,3 10,0 11,9 80,2 6,2 337 - 0,0 206 1.023,6
15:40 13,3 9,9 11,9 80,0 6,5 337 - 0,0 206 1.023,6
15:39 13,3 9,9 11,8 79,7 6,7 336 - 0,0 204 1.023,6
15:38 13,3 9,7 11,7 79,0 6,8 335 - 0,0 202 1.023,6
15:37 13,3 9,7 11,7 79,0 6,5 334 - 0,0 180 1.023,6
15:36 13,3 9,7 11,7 79,0 6,2 334 - 0,0 178 1.023,6
15:35 13,4 9,9 11,9 79,2 6,0 334 - 0,0 178 1.023,6
15:34 13,4 10,0 11,9 79,9 6,1 334 - 0,0 189 1.023,6
15:33 13,4 9,8 11,8 79,0 6,1 334 - 0,0 200 1.023,6
15:32 13,4 9,8 11,8 78,6 6,0 335 - 0,0 214 1.023,6
15:31 13,4 9,8 11,8 78,6 6,0 335 - 0,0 231 1.023,6
15:30 13,4 10,0 11,9 79,8 5,9 334 - 0,0 251 1.023,6
15:29 13,4 10,0 12,0 80,0 5,8 333 - 0,0 251 1.023,6
15:28 13,4 9,8 11,8 79,0 6,1 334 - 0,0 246 1.023,6
15:27 13,3 9,7 11,7 79,0 6,5 337 - 0,0 235 1.023,6
15:26 13,3 9,7 11,7 79,0 6,2 340 - 0,0 225 1.023,6
15:25 13,3 9,9 11,8 79,7 5,7 343 - 0,0 219 1.023,6
15:24 13,3 10,1 12,0 81,0 5,3 345 - 0,0 221 1.023,7
15:23 13,3 10,1 12,0 81,0 4,8 346 - 0,0 227 1.023,7
15:22 13,2 10,0 11,9 81,0 5,1 344 - 0,0 220 1.023,6
15:21 13,2 10,0 11,9 81,0 5,9 342 - 0,0 193 1.023,6
15:20 13,2 10,0 11,9 81,0 5,8 340 - 0,0 174 1.023,6
15:19 13,2 10,0 11,9 81,0 4,8 342 - 0,0 170 1.023,7
15:18 13,1 10,1 11,9 81,8 3,6 347 - 0,0 166 1.023,7
15:17 13,1 10,1 11,9 82,0 3,2 353 - 0,0 165 1.023,7
15:16 13,0 10,0 11,8 82,0 3,8 355 - 0,0 159 1.023,7
15:15 13,0 10,0 11,8 82,0 4,3 354 - 0,0 150 1.023,7
15:14 13,0 10,0 11,8 82,0 4,9 350 - 0,0 143 1.023,7
15:13 13,0 10,0 11,8 82,0 5,7 345 - 0,0 147 1.023,7
15:12 13,0 10,0 11,8 82,0 5,9 340 - 0,0 157 1.023,7
15:11 13,0 10,0 11,8 82,1 5,7 337 - 0,0 171 1.023,7
15:10 13,0 10,2 11,9 83,0 5,6 336 - 0,0 166 1.023,8
15:09 13,0 10,2 11,9 83,0 5,4 337 - 0,0 153 1.023,8
15:08 13,0 10,3 12,0 83,6 5,2 338 - 0,0 150 1.023,8
15:07 13,0 10,2 11,9 83,3 4,8 340 - 0,0 158 1.023,8
15:06 12,9 10,1 11,8 83,0 4,6 342 - 0,0 159 1.023,8
15:05 12,9 10,1 11,8 83,0 4,5 344 - 0,0 156 1.023,8
15:04 12,9 10,1 11,8 83,0 4,8 345 - 0,0 162 1.023,8
15:03 12,9 10,2 11,8 83,4 4,8 346 - 0,0 168 1.023,9
15:02 12,9 10,3 11,9 84,0 4,4 345 - 0,0 161 1.023,8
15:01 12,8 10,1 11,7 83,4 4,3 343 - 0,0 149 1.023,8
15:00 12,8 10,1 11,8 83,8 4,8 339 - 0,0 139 1.023,8
 
14:59 12,9 10,1 11,8 83,1 5,0 335 - 0,0 122 1.023,8
14:58 13,0 10,2 11,9 83,0 5,2 331 - 0,0 115 1.023,8
14:57 13,0 10,1 11,8 82,6 5,5 328 - 0,0 103 1.023,8
14:56 13,1 10,1 11,9 82,0 5,8 327 - 0,0 104 1.023,8
14:55 13,1 10,1 11,9 82,0 5,9 328 - 0,0 103 1.023,8
14:54 13,2 10,0 11,9 81,1 5,7 330 - 0,0 106 1.023,8
14:53 13,3 10,1 12,0 80,9 5,5 332 - 0,0 111 1.023,8
14:52 13,3 9,9 11,9 80,0 5,5 333 - 0,0 118 1.023,8
14:51 13,3 9,9 11,9 80,0 5,7 334 - 0,0 120 1.023,8
14:50 13,4 9,9 11,9 79,4 5,3 337 - 0,0 118 1.023,8
14:49 13,4 9,8 11,8 79,0 4,6 340 - 0,0 121 1.023,8
14:48 13,4 9,8 11,8 79,0 3,2 342 - 0,0 122 1.023,7
14:47 13,4 9,8 11,8 79,0 3,1 343 - 0,0 125 1.023,8
14:46 13,4 9,8 11,8 79,0 3,5 342 - 0,0 133 1.023,8
14:45 13,4 9,8 11,8 79,0 4,6 340 - 0,0 141 1.023,8
14:44 13,4 9,8 11,8 79,0 5,0 337 - 0,0 141 1.023,8
14:43 13,4 9,7 11,8 78,2 4,9 335 - 0,0 140 1.023,8
14:42 13,4 9,4 11,6 77,0 4,7 335 - 0,0 146 1.023,7
14:41 13,4 9,5 11,6 77,2 4,5 339 - 0,0 152 1.023,7
14:40 13,4 9,6 11,7 78,0 3,9 345 - 0,0 159 1.023,7
14:39 13,4 9,6 11,7 78,0 3,4 351 - 0,0 163 1.023,7
14:38 13,4 9,6 11,7 78,0 3,5 356 - 0,0 170 1.023,7
14:37 13,4 9,6 11,7 78,0 3,7 0 - 0,0 175 1.023,7
14:36 13,4 9,6 11,7 78,0 3,8 3 - 0,0 174 1.023,7
14:35 13,4 9,6 11,7 78,0 3,5 3 - 0,0 172 1.023,7
14:34 13,4 9,6 11,7 78,0 3,6 3 - 0,0 173 1.023,7
14:33 13,4 9,7 11,8 78,5 3,5 1 - 0,0 174 1.023,7
14:32 13,3 9,7 11,7 79,0 3,3 358 - 0,0 171 1.023,7
14:31 13,3 9,7 11,7 79,0 3,3 356 - 0,0 169 1.023,7
14:30 13,3 9,6 11,6 78,1 3,4 356 - 0,0 168 1.023,8
14:29 13,3 9,5 11,6 78,0 3,4 0 - 0,0 165 1.023,7
14:28 13,3 9,5 11,6 78,0 3,0 6 - 0,0 161 1.023,7
14:27 13,3 9,7 11,7 78,6 3,3 10 - 0,0 156 1.023,8
14:26 13,2 9,6 11,6 79,0 3,3 11 - 0,0 150 1.023,8
14:25 13,2 9,6 11,6 79,0 3,4 6 - 0,0 147 1.023,8
14:24 13,2 9,6 11,6 79,0 4,1 357 - 0,0 148 1.023,8
14:23 13,2 9,6 11,6 79,0 4,5 347 - 0,0 158 1.023,8
14:22 13,2 9,6 11,6 79,0 4,7 340 - 0,0 173 1.023,7
14:21 13,2 9,6 11,6 79,0 5,1 336 - 0,0 176 1.023,8
14:20 13,2 9,6 11,6 79,0 5,6 336 - 0,0 175 1.023,8
14:19 13,2 9,6 11,6 79,0 5,3 338 - 0,0 178 1.023,8
14:18 13,1 9,7 11,7 80,0 4,2 341 - 0,0 176 1.023,7
14:17 13,1 9,7 11,7 80,0 3,6 345 - 0,0 172 1.023,7
14:16 13,0 9,6 11,6 80,0 3,8 349 - 0,0 171 1.023,8
14:15 13,0 9,6 11,6 80,0 4,1 352 - 0,0 172 1.023,8
14:14 13,0 9,5 11,5 79,3 4,2 353 - 0,0 171 1.023,8
14:13 13,0 9,6 11,5 79,9 4,3 352 - 0,0 167 1.023,8
14:12 13,0 9,6 11,6 80,0 4,5 351 - 0,0 159 1.023,8
14:11 13,0 9,7 11,6 80,3 4,8 348 - 0,0 154 1.023,8
14:10 13,0 9,8 11,7 81,0 5,1 344 - 0,0 160 1.023,8
14:09 13,0 9,8 11,7 81,0 5,4 341 - 0,0 163 1.023,8
14:08 13,0 10,0 11,8 81,8 5,5 337 - 0,0 167 1.023,8
14:07 13,0 9,8 11,7 81,1 5,4 335 - 0,0 163 1.023,8
14:06 13,1 9,9 11,8 81,0 5,4 334 - 0,0 157 1.023,8
14:05 13,2 10,0 11,8 80,7 5,5 334 - 0,0 154 1.023,8
14:04 13,2 9,8 11,8 80,0 5,3 336 - 0,0 142 1.023,8
14:03 13,2 9,8 11,8 80,0 4,7 336 - 0,0 143 1.023,8
14:02 13,1 9,7 11,7 80,0 4,4 335 - 0,0 157 1.023,8
14:01 13,1 9,6 11,6 79,1 4,5 336 - 0,0 161 1.023,9
14:00 13,1 9,5 11,5 78,8 4,5 337 - 0,0 168 1.023,8
 
13:59 13,1 9,4 11,4 78,0 3,5 338 - 0,0 177 1.023,9
13:58 13,2 9,5 11,6 78,5 3,6 341 - 0,0 178 1.023,8
13:57 13,2 9,6 11,6 79,0 4,2 347 - 0,0 171 1.023,8
13:56 13,2 9,8 11,7 79,9 3,2 355 - 0,0 160 1.023,9
13:55 13,2 9,6 11,6 78,9 2,3 359 - 0,0 158 1.023,9
13:54 13,1 9,4 11,4 78,0 2,5 1 - 0,0 163 1.023,9
13:53 13,1 9,4 11,4 78,0 3,3 3 - 0,0 169 1.023,8
13:52 13,1 9,4 11,4 78,0 4,3 3 - 0,0 180 1.023,8
13:51 13,2 9,4 11,5 78,0 4,6 0 - 0,0 195 1.023,8
13:50 13,1 9,4 11,4 78,0 4,9 358 - 0,0 211 1.023,8
13:49 13,1 9,4 11,4 78,0 4,9 356 - 0,0 221 1.023,8
13:48 13,1 9,4 11,4 78,0 5,2 353 - 0,0 217 1.023,9
13:47 13,1 9,4 11,4 78,0 5,5 350 - 0,0 207 1.023,8
13:46 13,2 9,4 11,5 78,0 5,1 349 - 0,0 183 1.023,8
13:45 13,2 9,4 11,5 78,0 4,6 349 - 0,0 172 1.023,8
13:44 13,2 9,4 11,5 78,0 4,1 351 - 0,0 174 1.023,9
13:43 13,2 9,6 11,6 79,0 4,5 352 - 0,0 172 1.023,9
13:42 13,2 9,6 11,6 79,0 4,2 352 - 0,0 164 1.023,9
13:41 13,2 9,6 11,6 79,0 3,9 350 - 0,0 156 1.023,9
13:40 13,1 9,5 11,5 79,0 3,8 347 - 0,0 156 1.023,9
13:39 13,1 9,4 11,5 78,3 4,3 344 - 0,0 161 1.023,9
13:38 13,1 9,4 11,4 78,0 4,6 341 - 0,0 164 1.023,9
13:37 13,1 9,5 11,5 79,0 4,4 341 - 0,0 164 1.023,9
13:36 13,1 9,5 11,5 78,7 4,0 343 - 0,0 167 1.023,9
13:35 13,1 9,4 11,4 78,0 3,8 345 - 0,0 173 1.023,9
13:34 13,1 9,4 11,4 78,0 3,8 347 - 0,0 176 1.023,9
13:33 13,1 9,4 11,4 78,0 3,9 351 - 0,0 166 1.023,9
13:32 13,1 9,4 11,4 78,0 3,7 356 - 0,0 156 1.023,9
13:31 13,1 9,4 11,4 78,0 3,2 359 - 0,0 156 1.024,0
13:30 13,1 9,4 11,4 78,0 3,3 3 - 0,0 157 1.024,0
13:29 13,1 9,4 11,4 78,0 3,5 8 - 0,0 160 1.024,0
13:28 13,1 9,4 11,4 78,0 3,8 14 - 0,0 167 1.024,0
13:27 13,1 9,4 11,4 78,0 3,4 17 - 0,0 172 1.024,0
13:26 13,0 9,3 11,3 78,0 2,9 18 - 0,0 169 1.024,0
13:25 13,0 9,3 11,3 78,0 3,1 19 - 0,0 162 1.024,0
13:24 13,0 9,3 11,3 78,0 3,6 21 - 0,0 157 1.023,9
13:23 13,0 9,3 11,3 78,0 4,4 22 - 0,0 159 1.024,0
13:22 13,1 9,4 11,4 78,0 4,3 22 - 0,0 162 1.023,9
13:21 13,1 9,4 11,4 78,0 4,2 22 - 0,0 168 1.023,9
13:20 13,1 9,4 11,5 78,3 4,4 25 - 0,0 171 1.023,9
13:19 13,1 9,5 11,5 79,0 4,3 26 - 0,0 168 1.024,0
13:18 13,1 9,5 11,5 79,0 3,7 24 - 0,0 160 1.024,0
13:17 13,1 9,5 11,5 79,0 2,9 16 - 0,0 160 1.024,0
13:16 13,0 9,4 11,4 79,0 2,5 5 - 0,0 169 1.024,0
13:15 12,9 9,2 11,3 78,2 3,1 355 - 0,0 172 1.024,0
13:14 12,9 9,2 11,2 78,0 4,1 346 - 0,0 182 1.024,0
13:13 13,0 9,3 11,4 78,3 4,7 342 - 0,0 189 1.024,0
13:12 13,0 9,4 11,4 79,0 4,7 343 - 0,0 193 1.024,0
13:11 13,0 9,4 11,4 79,0 4,2 346 - 0,0 189 1.023,9
13:10 13,0 9,4 11,4 79,0 3,8 350 - 0,0 178 1.023,9
13:09 12,9 9,3 11,3 79,0 4,2 352 - 0,0 171 1.024,0
13:08 13,0 9,4 11,4 79,0 4,6 354 - 0,0 174 1.023,9
13:07 12,9 9,3 11,3 79,0 4,6 356 - 0,0 187 1.023,9
13:06 12,9 9,3 11,3 79,0 4,6 355 - 0,0 191 1.023,9
13:05 12,9 9,3 11,3 79,0 4,4 353 - 0,0 193 1.024,0
13:04 12,9 9,3 11,3 79,0 4,6 350 - 0,0 201 1.024,1
13:03 12,9 9,3 11,3 79,0 5,2 349 - 0,0 203 1.024,2
13:02 12,9 9,2 11,2 78,1 5,5 349 - 0,0 193 1.024,1
13:01 12,9 9,2 11,2 78,0 5,4 349 - 0,0 184 1.024,1
13:00 12,9 9,2 11,2 78,0 5,2 350 - 0,0 187 1.024,1
 
12:59 12,9 9,3 11,3 78,6 5,2 354 - 0,0 195 1.024,1
12:58 12,9 9,2 11,3 78,3 4,7 359 - 0,0 203 1.024,1
12:57 12,9 9,2 11,2 78,0 3,8 3 - 0,0 209 1.024,1
12:56 12,9 9,2 11,2 78,0 3,7 5 - 0,0 217 1.024,1
12:55 12,9 9,2 11,3 78,3 4,4 3 - 0,0 220 1.024,1
12:54 12,9 9,3 11,3 78,6 4,8 359 - 0,0 215 1.024,1
12:53 12,9 9,3 11,3 78,6 4,7 355 - 0,0 213 1.024,1
12:52 13,0 9,4 11,4 79,0 4,9 351 - 0,0 216 1.024,0
12:51 12,9 9,2 11,2 78,1 4,9 350 - 0,0 217 1.024,0
12:50 12,9 9,3 11,3 79,0 4,6 349 - 0,0 210 1.024,1
12:49 12,9 9,3 11,3 79,0 4,4 350 - 0,0 202 1.024,0
12:48 12,9 9,4 11,4 79,5 4,2 351 - 0,0 199 1.023,9
12:47 12,9 9,5 11,5 80,0 4,1 351 - 0,0 204 1.024,0
12:46 12,9 9,4 11,4 79,3 4,5 351 - 0,0 205 1.024,0
12:45 12,9 9,5 11,4 79,9 5,1 354 - 0,0 204 1.024,0
12:44 12,9 9,5 11,5 80,0 4,9 357 - 0,0 200 1.024,0
12:43 12,9 9,5 11,5 80,0 4,5 359 - 0,0 195 1.023,9
12:42 12,9 9,5 11,5 80,0 4,3 0 - 0,0 187 1.024,0
12:41 12,8 9,6 11,4 80,7 4,3 358 - 0,0 178 1.024,0
12:40 12,9 9,7 11,6 81,0 4,5 354 - 0,0 168 1.024,0
12:39 12,8 9,6 11,5 81,0 4,8 347 - 0,0 165 1.024,0
12:38 12,8 9,6 11,5 81,0 4,4 341 - 0,0 161 1.024,0
12:37 12,8 9,6 11,5 81,0 4,2 338 - 0,0 156 1.024,0
12:36 12,8 9,6 11,5 81,0 4,1 337 - 0,0 156 1.024,0
12:35 12,8 9,6 11,5 81,0 3,8 338 - 0,0 152 1.024,0
12:34 12,8 9,6 11,5 81,0 4,0 339 - 0,0 145 1.024,0
12:33 12,8 9,6 11,5 81,0 4,8 339 - 0,0 141 1.024,0
12:32 12,8 9,6 11,4 80,8 5,5 339 - 0,0 137 1.024,0
12:31 12,9 9,5 11,5 80,0 6,0 340 - 0,0 135 1.024,0
12:30 12,9 9,4 11,4 79,5 6,2 341 - 0,0 144 1.024,0
12:29 13,0 9,4 11,4 79,0 6,3 343 - 0,0 151 1.024,0
12:28 13,0 9,4 11,4 79,0 6,2 346 - 0,0 150 1.024,0
12:27 13,0 9,3 11,4 78,2 5,8 349 - 0,0 152 1.024,0
12:26 13,0 9,4 11,4 78,8 5,0 353 - 0,0 163 1.024,0
12:25 13,0 9,3 11,3 78,0 4,6 356 - 0,0 176 1.024,0
12:24 13,1 9,4 11,4 78,0 4,4 359 - 0,0 176 1.024,0
12:23 13,1 9,2 11,4 77,3 4,0 2 - 0,0 165 1.024,0
12:22 13,1 9,3 11,4 77,9 3,3 5 - 0,0 164 1.024,0
12:21 13,1 9,4 11,4 78,0 3,1 6 - 0,0 169 1.024,0
12:20 13,1 9,4 11,4 78,0 3,5 4 - 0,0 174 1.024,0
12:19 13,1 9,4 11,4 78,0 4,0 359 - 0,0 175 1.024,0
12:18 13,2 9,4 11,5 78,0 4,5 353 - 0,0 173 1.024,0
12:17 13,2 9,4 11,5 78,0 4,8 350 - 0,0 192 1.024,0
12:16 13,3 9,2 11,4 76,3 5,6 349 - 0,0 198 1.023,9
12:15 13,3 9,2 11,4 76,2 5,6 351 - 0,0 215 1.023,9
12:14 13,4 9,4 11,6 77,0 5,1 354 - 0,0 227 1.024,0
12:13 13,4 9,3 11,5 76,4 4,8 357 - 0,0 235 1.023,9
12:12 13,4 9,1 11,4 75,4 4,8 1 - 0,0 229 1.024,0
12:11 13,5 9,2 11,5 75,0 4,6 5 - 0,0 212 1.024,0
12:10 13,4 8,9 11,3 74,1 3,7 8 - 0,0 212 1.024,0
12:09 13,5 9,2 11,5 75,0 3,0 11 - 0,0 233 1.024,1
12:08 13,4 9,1 11,4 75,0 2,9 13 - 0,0 244 1.024,0
12:07 13,4 9,1 11,4 75,0 3,0 16 - 0,0 247 1.023,9
12:06 13,4 9,1 11,4 75,0 3,0 17 - 0,0 258 1.024,0
12:05 13,4 8,9 11,3 74,3 3,6 17 - 0,0 262 1.024,0
12:04 13,4 9,0 11,4 74,9 3,7 16 - 0,0 248 1.024,1
12:03 13,4 9,0 11,4 74,8 3,8 15 - 0,0 241 1.024,1
12:02 13,3 8,8 11,2 74,4 3,5 17 - 0,0 233 1.024,0
12:01 13,3 8,9 11,2 74,5 3,4 20 - 0,0 239 1.024,1
12:00 13,3 8,9 11,3 74,7 3,4 22 - 0,0 251 1.024,0
 
11:59 13,2 8,7 11,1 74,3 3,3 19 - 0,0 257 1.024,1
11:58 13,2 8,7 11,1 74,0 3,5 12 - 0,0 259 1.024,1
11:57 13,2 8,7 11,1 74,0 3,7 1 - 0,0 262 1.024,1
11:56 13,3 8,8 11,2 74,0 4,1 351 - 0,0 266 1.024,0
11:55 13,3 8,7 11,1 73,5 4,7 346 - 0,0 275 1.024,0
11:54 13,4 8,7 11,2 73,0 4,6 346 - 0,0 289 1.024,0
11:53 13,4 8,7 11,2 73,0 4,2 350 - 0,0 299 1.024,1
11:52 13,4 8,7 11,2 73,0 4,0 0 - 0,0 298 1.024,1
11:51 13,4 8,7 11,2 73,3 3,8 9 - 0,0 300 1.024,1
11:50 13,2 8,7 11,1 74,0 3,4 14 - 0,0 305 1.024,1
11:49 13,4 8,9 11,3 74,0 3,3 12 - 0,0 314 1.024,1
11:48 13,2 8,5 11,0 73,4 3,8 7 - 0,0 337 1.024,1
11:47 13,2 8,6 11,1 73,8 4,4 2 - 0,0 372 1.024,1
11:46 13,2 8,5 11,0 73,2 4,6 359 - 0,0 399 1.024,1
11:45 13,2 8,7 11,1 74,3 4,4 357 - 0,0 371 1.024,1
11:44 13,1 8,8 11,1 75,0 4,3 356 - 0,0 333 1.024,1
11:43 13,1 8,9 11,2 75,6 4,1 356 - 0,0 316 1.024,1
11:42 13,0 8,7 11,0 75,3 3,9 355 - 0,0 312 1.024,1
11:41 12,9 8,8 11,0 75,9 4,0 352 - 0,0 318 1.024,1
11:40 13,0 8,7 11,0 75,2 4,3 349 - 0,0 317 1.024,1
11:39 13,0 8,9 11,1 76,0 5,1 347 - 0,0 291 1.024,1
11:38 13,0 8,9 11,2 76,4 5,2 346 - 0,0 263 1.024,1
11:37 13,0 9,1 11,2 77,0 5,1 345 - 0,0 249 1.024,2
11:36 13,0 8,9 11,1 76,3 4,8 344 - 0,0 257 1.024,1
11:35 13,0 8,9 11,1 76,0 4,7 341 - 0,0 269 1.024,1
11:34 12,9 8,8 11,0 75,9 4,9 339 - 0,0 280 1.024,2
11:33 13,0 8,7 11,0 75,0 5,2 336 - 0,0 298 1.024,3
11:32 13,0 8,7 11,0 75,0 5,6 334 - 0,0 304 1.024,2
11:31 13,1 8,8 11,1 75,0 5,7 334 - 0,0 309 1.024,2
11:30 13,1 8,6 11,0 74,3 5,6 336 - 0,0 318 1.024,1
11:29 13,2 8,7 11,1 74,0 5,8 340 - 0,0 310 1.024,2
11:28 13,3 8,8 11,2 74,0 5,4 345 - 0,0 293 1.024,2
11:27 13,3 8,8 11,2 74,0 4,5 352 - 0,0 277 1.024,2
11:26 13,3 8,8 11,2 74,0 4,1 359 - 0,0 266 1.024,2
11:25 13,3 8,6 11,1 73,4 4,0 7 - 0,0 260 1.024,2
11:24 13,3 8,7 11,2 73,8 3,6 16 - 0,0 256 1.024,2
11:23 13,2 8,7 11,1 74,0 3,3 24 - 0,0 261 1.024,3
11:22 13,2 8,7 11,1 74,0 3,3 30 - 0,0 273 1.024,2
11:21 13,3 8,8 11,2 74,0 3,4 33 - 0,0 283 1.024,2
11:20 13,2 8,7 11,1 74,0 3,3 34 - 0,0 295 1.024,3
11:19 13,2 8,7 11,1 74,0 3,0 33 - 0,0 315 1.024,2
11:18 13,2 8,7 11,1 74,0 3,1 30 - 0,0 346 1.024,2
11:17 13,1 8,6 11,0 74,0 3,4 26 - 0,0 354 1.024,2
11:16 13,2 8,7 11,1 74,0 3,4 19 - 0,0 363 1.024,2
11:15 13,1 8,6 11,0 74,0 2,9 13 - 0,0 348 1.024,2
11:14 13,1 8,7 11,0 74,5 3,3 4 - 0,0 323 1.024,3
11:13 12,9 8,6 10,9 75,0 4,4 355 - 0,0 311 1.024,2
11:12 12,8 8,5 10,8 75,0 4,9 346 - 0,0 306 1.024,2
11:11 12,8 8,5 10,8 75,0 4,8 340 - 0,0 316 1.024,2
11:10 12,8 8,5 10,8 75,0 5,0 337 - 0,0 322 1.024,3
11:09 12,8 8,5 10,8 75,0 5,2 335 - 0,0 313 1.024,2
11:08 12,8 8,6 10,9 75,5 5,7 335 - 0,0 287 1.024,3
11:07 12,8 8,7 10,9 76,0 5,8 337 - 0,0 274 1.024,3
11:06 12,8 8,5 10,8 75,2 5,9 339 - 0,0 273 1.024,3
11:05 12,8 8,5 10,8 75,0 5,8 340 - 0,0 274 1.024,3
11:04 12,8 8,5 10,8 75,0 5,7 339 - 0,0 270 1.024,2
11:03 12,8 8,5 10,8 75,0 5,3 338 - 0,0 265 1.024,3
11:02 12,8 8,4 10,8 74,5 4,8 337 - 0,0 267 1.024,3
11:01 12,8 8,3 10,7 74,0 4,4 337 - 0,0 276 1.024,3
11:00 12,9 8,6 10,9 74,9 4,6 339 - 0,0 281 1.024,3
 
10:59 12,9 8,8 11,0 76,0 4,5 342 - 0,0 310 1.024,3
10:58 12,9 8,7 11,0 75,8 4,1 345 - 0,0 308 1.024,3
10:57 12,9 8,6 10,9 75,0 4,3 348 - 0,0 270 1.024,3
10:56 12,9 8,6 10,9 75,0 4,7 352 - 0,0 249 1.024,3
10:55 12,9 8,4 10,8 74,3 4,8 356 - 0,0 241 1.024,4
10:54 12,9 8,4 10,8 74,2 4,3 2 - 0,0 245 1.024,3
10:53 12,9 8,6 10,9 74,9 3,7 9 - 0,0 260 1.024,3
10:52 12,8 8,3 10,7 74,0 3,8 17 - 0,0 275 1.024,3
10:51 12,9 8,4 10,8 74,0 4,1 23 - 0,0 285 1.024,3
10:50 12,9 8,5 10,9 74,6 4,1 26 - 0,0 279 1.024,3
10:49 12,9 8,6 10,9 75,0 3,7 27 - 0,0 287 1.024,3
10:48 12,9 8,8 11,0 75,9 3,5 27 - 0,0 282 1.024,3
10:47 12,8 8,7 10,9 75,9 3,4 26 - 0,0 260 1.024,2
10:46 12,8 8,5 10,8 75,0 3,9 25 - 0,0 236 1.024,3
10:45 12,9 8,6 10,9 75,0 4,1 26 - 0,0 223 1.024,2
10:44 12,8 8,5 10,8 75,0 4,2 28 - 0,0 226 1.024,2
10:43 12,8 8,5 10,8 75,0 4,0 29 - 0,0 240 1.024,3
10:42 12,7 8,4 10,7 75,0 3,6 26 - 0,0 256 1.024,3
10:41 12,7 8,4 10,7 75,0 2,9 23 - 0,0 276 1.024,3
10:40 12,8 8,5 10,8 75,0 3,2 18 - 0,0 300 1.024,3
10:39 12,7 8,4 10,7 75,0 4,0 11 - 0,0 324 1.024,3
10:38 12,6 8,3 10,6 75,0 4,6 6 - 0,0 346 1.024,3
10:37 12,7 8,4 10,7 75,0 4,4 4 - 0,0 352 1.024,2
10:36 12,6 8,3 10,6 75,1 4,5 6 - 0,0 333 1.024,3
10:35 12,6 8,5 10,7 76,0 4,0 7 - 0,0 318 1.024,3
10:34 12,6 8,5 10,7 76,0 3,8 7 - 0,0 291 1.024,3
10:33 12,6 8,5 10,7 76,0 3,7 5 - 0,0 267 1.024,3
10:32 12,7 8,7 10,9 76,7 4,3 2 - 0,0 249 1.024,3
10:31 12,7 8,6 10,8 76,2 5,2 357 - 0,0 234 1.024,3
10:30 12,7 8,6 10,8 75,9 5,1 352 - 0,0 234 1.024,4
10:29 12,7 8,4 10,7 75,0 4,9 349 - 0,0 248 1.024,3
10:28 12,7 8,4 10,7 75,0 4,8 350 - 0,0 278 1.024,3
10:27 12,7 8,4 10,7 75,0 4,3 353 - 0,0 263 1.024,3
10:26 12,7 8,4 10,7 75,0 4,0 357 - 0,0 251 1.024,4
10:25 12,7 8,4 10,7 75,2 3,9 4 - 0,0 253 1.024,3
10:24 12,7 8,6 10,8 76,1 3,8 12 - 0,0 254 1.024,4
10:23 12,6 8,6 10,8 76,8 3,0 19 - 0,0 245 1.024,4
10:22 12,5 8,5 10,7 76,4 2,7 23 - 0,0 233 1.024,4
10:21 12,7 8,7 10,9 76,5 2,5 23 - 0,0 230 1.024,4
10:20 12,4 8,3 10,5 76,0 2,8 17 - 0,0 237 1.024,4
10:19 12,5 8,4 10,6 76,0 3,8 9 - 0,0 236 1.024,5
10:18 12,4 8,3 10,5 76,0 4,5 2 - 0,0 227 1.024,4
10:17 12,5 8,4 10,6 76,0 4,7 359 - 0,0 216 1.024,4
10:16 12,5 8,4 10,6 76,0 4,8 0 - 0,0 209 1.024,4
10:15 12,5 8,4 10,6 76,0 5,0 3 - 0,0 204 1.024,4
10:14 12,5 8,4 10,6 76,0 4,9 7 - 0,0 204 1.024,4
10:13 12,5 8,4 10,6 76,0 4,1 13 - 0,0 206 1.024,4
10:12 12,6 8,5 10,7 76,0 3,0 15 - 0,0 207 1.024,5
10:11 12,5 8,4 10,6 76,0 3,0 15 - 0,0 208 1.024,5
10:10 12,4 8,3 10,5 76,0 3,8 13 - 0,0 218 1.024,5
10:09 12,4 8,3 10,5 76,0 4,6 12 - 0,0 236 1.024,5
10:08 12,3 8,2 10,4 76,0 4,4 13 - 0,0 243 1.024,5
10:07 12,3 8,2 10,4 76,0 4,4 16 - 0,0 219 1.024,4
10:06 12,3 8,2 10,4 76,0 4,6 21 - 0,0 204 1.024,5
10:05 12,3 8,2 10,4 76,0 4,5 25 - 0,0 195 1.024,5
10:04 12,3 8,2 10,4 76,0 4,5 28 - 0,0 189 1.024,5
10:03 12,4 8,3 10,5 76,0 4,5 29 - 0,0 187 1.024,5
10:02 12,4 8,3 10,5 76,0 4,3 27 - 0,0 196 1.024,5
10:01 12,3 8,2 10,4 76,0 4,1 24 - 0,0 222 1.024,5
10:00 12,3 8,2 10,4 76,0 4,2 18 - 0,0 261 1.024,5
 
09:59 12,3 8,2 10,4 76,0 4,3 11 - 0,0 259 1.024,5
09:58 12,4 8,3 10,5 76,0 4,1 5 - 0,0 242 1.024,5
09:57 12,3 8,2 10,4 76,0 3,9 1 - 0,0 209 1.024,5
09:56 12,3 8,2 10,4 76,0 4,0 358 - 0,0 205 1.024,5
09:55 12,3 8,4 10,5 76,9 4,3 356 - 0,0 199 1.024,5
09:54 12,3 8,4 10,5 77,0 4,4 356 - 0,0 197 1.024,4
09:53 12,3 8,4 10,5 77,0 4,3 357 - 0,0 194 1.024,4
09:52 12,3 8,4 10,5 77,0 4,4 358 - 0,0 189 1.024,4
09:51 12,3 8,5 10,6 77,7 4,1 357 - 0,0 186 1.024,5
09:50 12,3 8,6 10,6 78,0 3,6 355 - 0,0 192 1.024,5
09:49 12,3 8,6 10,6 78,0 3,3 354 - 0,0 206 1.024,5
09:48 12,3 8,6 10,6 78,0 3,5 355 - 0,0 205 1.024,5
09:47 12,3 8,6 10,6 78,0 3,7 359 - 0,0 186 1.024,5
09:46 12,3 8,6 10,6 78,0 3,3 5 - 0,0 175 1.024,5
09:45 12,3 8,6 10,6 78,0 3,1 13 - 0,0 168 1.024,5
09:44 12,2 8,6 10,6 78,7 2,9 23 - 0,0 159 1.024,5
09:43 12,3 8,6 10,6 78,0 2,6 31 - 0,0 153 1.024,4
09:42 12,2 8,5 10,6 78,0 2,9 36 - 0,0 150 1.024,5
09:41 12,1 8,4 10,5 78,0 3,2 35 - 0,0 151 1.024,5
09:40 12,1 8,4 10,5 78,0 2,9 29 - 0,0 153 1.024,5
09:39 12,1 8,4 10,5 78,0 2,5 20 - 0,0 153 1.024,5
09:38 12,1 8,2 10,4 77,2 3,0 9 - 0,0 154 1.024,5
09:37 12,2 8,5 10,6 78,0 4,2 359 - 0,0 154 1.024,5
09:36 12,2 8,5 10,6 78,0 4,4 351 - 0,0 153 1.024,5
09:35 12,2 8,5 10,6 78,0 4,2 348 - 0,0 155 1.024,5
09:34 12,2 8,5 10,6 78,0 3,7 348 - 0,0 155 1.024,5
09:33 12,1 8,4 10,5 78,0 2,7 354 - 0,0 151 1.024,5
09:32 12,2 8,5 10,6 78,0 1,9 4 - 0,0 152 1.024,5
09:31 12,2 8,5 10,6 78,0 2,2 18 - 0,0 155 1.024,6
09:30 12,1 8,4 10,5 78,0 2,2 30 - 0,0 160 1.024,5
09:29 12,1 8,4 10,5 78,0 2,4 36 - 0,0 163 1.024,6
09:28 12,0 8,3 10,4 78,0 2,6 37 - 0,0 165 1.024,6
09:27 12,0 8,3 10,4 78,0 2,8 35 - 0,0 165 1.024,5
09:26 12,0 8,3 10,4 78,0 3,0 33 - 0,0 164 1.024,6
09:25 12,1 8,6 10,6 79,0 3,1 29 - 0,0 155 1.024,6
09:24 11,9 8,4 10,4 79,0 3,7 23 - 0,0 142 1.024,5
09:23 11,9 8,3 10,3 78,4 4,1 16 - 0,0 139 1.024,5
09:22 12,0 8,3 10,4 78,0 4,1 10 - 0,0 139 1.024,5
09:21 11,9 8,2 10,3 78,0 4,1 7 - 0,0 137 1.024,5
09:20 11,8 8,1 10,2 78,0 3,8 5 - 0,0 137 1.024,5
09:19 11,8 8,1 10,2 78,0 3,8 6 - 0,0 136 1.024,6
09:18 11,8 8,1 10,2 78,0 4,3 6 - 0,0 134 1.024,6
09:17 11,9 8,2 10,3 78,0 4,6 7 - 0,0 133 1.024,5
09:16 11,9 8,2 10,3 78,0 4,6 6 - 0,0 136 1.024,5
09:15 11,9 8,2 10,3 78,0 4,7 4 - 0,0 141 1.024,5
09:14 11,9 8,2 10,3 78,1 5,0 2 - 0,0 144 1.024,5
09:13 11,9 8,4 10,4 79,0 4,8 359 - 0,0 145 1.024,5
09:12 11,9 8,4 10,4 79,0 4,7 358 - 0,0 142 1.024,5
09:11 11,9 8,3 10,3 78,5 4,8 357 - 0,0 140 1.024,5
09:10 11,9 8,2 10,3 78,0 5,1 358 - 0,0 135 1.024,5
09:09 11,9 8,3 10,3 78,8 5,1 0 - 0,0 132 1.024,5
09:08 11,9 8,4 10,4 79,0 4,7 3 - 0,0 131 1.024,5
09:07 11,9 8,4 10,4 79,0 4,1 6 - 0,0 128 1.024,5
09:06 11,9 8,4 10,4 79,0 3,9 10 - 0,0 126 1.024,4
09:05 11,9 8,4 10,4 79,0 3,4 15 - 0,0 123 1.024,4
09:04 11,9 8,4 10,4 79,0 2,9 19 - 0,0 123 1.024,5
09:03 11,9 8,4 10,4 79,0 2,8 22 - 0,0 125 1.024,5
09:02 11,8 8,3 10,3 79,0 3,3 22 - 0,0 125 1.024,5
09:01 11,8 8,3 10,3 79,0 3,3 23 - 0,0 125 1.024,5
09:00 11,9 8,4 10,4 79,0 3,5 25 - 0,0 127 1.024,5
 
08:59 11,8 8,4 10,3 79,6 3,6 27 - 0,0 134 1.024,5
08:58 11,8 8,5 10,4 80,0 3,4 28 - 0,0 134 1.024,5
08:57 11,8 8,3 10,3 79,2 3,4 28 - 0,0 126 1.024,5
08:56 11,8 8,3 10,3 79,0 3,6 28 - 0,0 116 1.024,5
08:55 11,8 8,3 10,3 79,0 3,7 27 - 0,0 107 1.024,5
08:54 11,8 8,3 10,3 79,0 4,0 24 - 0,0 105 1.024,4
08:53 11,8 8,3 10,3 79,0 4,1 19 - 0,0 105 1.024,5
08:52 11,8 8,3 10,3 79,0 4,0 15 - 0,0 112 1.024,4
08:51 11,8 8,3 10,3 79,0 4,1 12 - 0,0 118 1.024,5
08:50 11,8 8,3 10,3 79,0 4,5 9 - 0,0 116 1.024,5
08:49 11,8 8,3 10,3 79,0 4,8 8 - 0,0 113 1.024,4
08:48 11,8 8,3 10,3 79,0 5,0 9 - 0,0 110 1.024,4
08:47 11,8 8,3 10,3 79,0 4,9 11 - 0,0 104 1.024,4
08:46 11,8 8,3 10,3 79,0 4,1 16 - 0,0 99 1.024,5
08:45 11,8 8,3 10,3 79,0 3,1 21 - 0,0 105 1.024,4
08:44 11,8 8,3 10,3 79,0 3,1 25 - 0,0 108 1.024,4
08:43 11,7 8,2 10,2 79,0 3,3 28 - 0,0 104 1.024,5
08:42 11,7 8,1 10,1 78,6 3,1 30 - 0,0 99 1.024,5
08:41 11,7 8,0 10,1 78,0 3,3 33 - 0,0 98 1.024,4
08:40 11,7 8,0 10,1 78,0 3,5 37 - 0,0 101 1.024,4
08:39 11,7 8,0 10,1 78,1 3,8 41 - 0,0 108 1.024,4
08:38 11,7 8,2 10,2 79,0 4,1 46 - 0,0 117 1.024,4
08:37 11,7 8,2 10,2 79,0 3,9 49 - 0,0 125 1.024,4
08:36 11,7 8,2 10,2 79,0 3,3 50 - 0,0 122 1.024,4
08:35 11,8 8,3 10,3 79,0 3,4 48 - 0,0 114 1.024,4
08:34 11,7 8,2 10,2 79,0 3,3 44 - 0,0 113 1.024,4
08:33 11,7 8,2 10,2 79,0 3,0 40 - 0,0 115 1.024,4
08:32 11,7 8,2 10,2 79,0 2,6 37 - 0,0 122 1.024,4
08:31 11,7 8,2 10,2 79,0 2,7 37 - 0,0 131 1.024,4
08:30 11,6 8,1 10,1 79,0 3,2 39 - 0,0 147 1.024,4
08:29 11,7 8,2 10,2 79,0 4,1 43 - 0,0 158 1.024,4
08:28 11,6 8,1 10,1 79,0 4,7 47 - 0,0 156 1.024,4
08:27 11,6 8,1 10,1 79,0 4,6 51 - 0,0 150 1.024,4
08:26 11,6 8,1 10,1 79,0 4,2 52 - 0,0 145 1.024,4
08:25 11,6 8,1 10,1 79,0 4,3 51 - 0,0 139 1.024,4
08:24 11,6 8,1 10,1 79,0 4,2 48 - 0,0 129 1.024,4
08:23 11,6 8,1 10,1 79,0 4,2 43 - 0,0 114 1.024,4
08:22 11,6 8,1 10,1 79,0 4,2 37 - 0,0 112 1.024,4
08:21 11,6 8,1 10,1 79,0 3,7 31 - 0,0 112 1.024,4
08:20 11,6 8,1 10,1 79,0 3,3 26 - 0,0 110 1.024,4
08:19 11,6 8,1 10,1 79,0 3,7 24 - 0,0 113 1.024,4
08:18 11,5 8,0 10,0 79,0 4,3 22 - 0,0 114 1.024,3
08:17 11,6 8,2 10,1 79,7 4,7 19 - 0,0 113 1.024,3
08:16 11,6 8,3 10,2 80,0 4,8 17 - 0,0 113 1.024,4
08:15 11,5 8,2 10,1 80,0 4,4 16 - 0,0 111 1.024,3
08:14 11,5 8,2 10,1 80,0 4,0 15 - 0,0 99 1.024,3
08:13 11,5 8,2 10,1 80,0 4,0 14 - 0,0 93 1.024,4
08:12 11,5 8,2 10,1 80,0 4,0 12 - 0,0 93 1.024,4
08:11 11,5 8,2 10,1 80,0 4,0 10 - 0,0 90 1.024,3
08:10 11,5 8,2 10,1 80,0 4,2 9 - 0,0 87 1.024,4
08:09 11,6 8,4 10,3 81,0 4,6 8 - 0,0 84 1.024,3
08:08 11,5 8,3 10,1 80,7 3,6 5 - 0,0 85 1.024,3
08:07 11,5 8,2 10,1 80,0 3,0 4 - 0,0 84 1.024,4
08:06 11,5 8,2 10,1 80,0 3,2 5 - 0,0 77 1.024,4
08:05 11,5 8,2 10,1 80,0 4,0 9 - 0,0 77 1.024,4
08:04 11,5 8,2 10,1 80,0 4,1 15 - 0,0 82 1.024,4
08:03 11,5 8,2 10,1 80,0 3,2 21 - 0,0 86 1.024,4
08:02 11,5 8,2 10,1 80,0 2,9 24 - 0,0 87 1.024,4
08:01 11,5 8,2 10,1 80,0 3,6 26 - 0,0 86 1.024,4
08:00 11,5 8,2 10,1 80,0 3,6 28 - 0,0 83 1.024,4
 
07:59 11,6 8,4 10,3 80,8 3,8 28 - 0,0 82 1.024,4
07:58 11,6 8,4 10,3 81,0 3,5 24 - 0,0 84 1.024,4
07:57 11,6 8,4 10,3 81,0 3,5 21 - 0,0 79 1.024,4
07:56 11,6 8,4 10,3 81,0 3,4 22 - 0,0 73 1.024,4
07:55 11,6 8,4 10,3 81,0 3,5 24 - 0,0 70 1.024,3
07:54 11,6 8,4 10,3 81,0 3,6 26 - 0,0 69 1.024,4
07:53 11,5 8,4 10,2 81,0 3,7 27 - 0,0 67 1.024,4
07:52 11,6 8,4 10,3 81,0 3,8 28 - 0,0 69 1.024,5
07:51 11,5 8,4 10,2 81,0 3,6 29 - 0,0 72 1.024,4
07:50 11,5 8,4 10,2 81,0 3,5 28 - 0,0 71 1.024,4
07:49 11,5 8,4 10,2 81,0 3,6 25 - 0,0 68 1.024,4
07:48 11,5 8,4 10,2 81,0 3,8 21 - 0,0 67 1.024,4
07:47 11,5 8,4 10,2 81,0 3,5 18 - 0,0 67 1.024,4
07:46 11,5 8,3 10,2 80,9 2,8 17 - 0,0 65 1.024,4
07:45 11,4 8,1 10,0 80,3 2,9 19 - 0,0 63 1.024,4
07:44 11,4 8,2 10,0 80,6 3,2 23 - 0,0 63 1.024,4
07:43 11,4 8,1 10,0 80,0 3,3 28 - 0,0 66 1.024,4
07:42 11,4 8,2 10,0 80,7 3,8 32 - 0,0 77 1.024,4
07:41 11,4 8,1 10,0 80,2 3,9 36 - 0,0 87 1.024,4
07:40 11,4 8,1 10,0 80,0 4,0 39 - 0,0 86 1.024,4
07:39 11,4 8,1 10,0 80,0 4,1 42 - 0,0 79 1.024,4
07:38 11,4 8,1 10,0 80,4 4,3 44 - 0,0 76 1.024,4
07:37 11,4 8,3 10,1 81,0 3,8 46 - 0,0 74 1.024,4
07:36 11,4 8,3 10,1 81,0 3,5 46 - 0,0 75 1.024,4
07:35 11,4 8,3 10,1 81,0 3,7 43 - 0,0 72 1.024,4
07:34 11,4 8,3 10,1 81,0 3,8 37 - 0,0 70 1.024,4
07:33 11,4 8,3 10,1 81,0 4,1 29 - 0,0 66 1.024,4
07:32 11,4 8,3 10,1 81,0 4,3 21 - 0,0 64 1.024,4
07:31 11,4 8,3 10,1 81,0 4,4 14 - 0,0 62 1.024,4
07:30 11,4 8,3 10,1 81,0 4,3 10 - 0,0 63 1.024,4
07:29 11,4 8,4 10,2 81,9 4,5 7 - 0,0 65 1.024,4
07:28 11,4 8,4 10,2 82,0 4,7 7 - 0,0 65 1.024,3
07:27 11,4 8,4 10,2 82,0 4,4 7 - 0,0 64 1.024,3
07:26 11,3 8,3 10,1 82,0 4,1 8 - 0,0 61 1.024,4
07:25 11,3 8,3 10,1 82,0 4,0 8 - 0,0 60 1.024,4
07:24 11,3 8,3 10,1 82,0 4,2 10 - 0,0 58 1.024,3
07:23 11,3 8,3 10,1 82,0 4,3 13 - 0,0 55 1.024,3
07:22 11,3 8,3 10,1 82,0 4,0 16 - 0,0 54 1.024,3
07:21 11,3 8,3 10,1 82,0 3,8 18 - 0,0 53 1.024,3
07:20 11,3 8,3 10,1 82,0 3,9 20 - 0,0 53 1.024,3
07:19 11,3 8,3 10,1 82,0 3,8 24 - 0,0 54 1.024,3
07:18 11,3 8,3 10,1 82,0 3,3 28 - 0,0 55 1.024,3
07:17 11,4 8,4 10,2 82,0 2,7 29 - 0,0 51 1.024,3
07:16 11,3 8,3 10,1 82,0 2,6 29 - 0,0 49 1.024,3
07:15 11,3 8,3 10,1 82,0 2,4 30 - 0,0 48 1.024,3
07:14 11,3 8,3 10,1 82,0 2,7 30 - 0,0 46 1.024,3
07:13 11,3 8,3 10,1 82,0 3,0 28 - 0,0 47 1.024,3
07:12 11,3 8,3 10,1 82,0 2,8 27 - 0,0 47 1.024,4
07:11 11,2 8,2 10,0 82,0 2,6 28 - 0,0 47 1.024,3
07:10 11,2 8,2 10,0 82,0 2,3 31 - 0,0 46 1.024,3
07:09 11,2 8,2 9,9 81,7 2,0 37 - 0,0 46 1.024,4
07:08 11,2 8,1 9,9 81,0 2,1 43 - 0,0 46 1.024,3
07:07 11,2 8,1 9,9 81,0 2,5 47 - 0,0 47 1.024,3
07:06 11,2 8,2 10,0 81,8 2,9 51 - 0,0 48 1.024,3
07:05 11,2 8,2 10,0 82,0 2,7 53 - 0,0 48 1.024,3
07:04 11,2 8,2 10,0 81,8 2,3 53 - 0,0 47 1.024,3
07:03 11,1 8,0 9,8 81,0 2,4 52 - 0,0 47 1.024,3
07:02 11,1 8,0 9,8 81,0 2,9 50 - 0,0 49 1.024,3
07:01 11,1 8,0 9,8 81,0 3,1 47 - 0,0 53 1.024,3
07:00 11,1 8,0 9,8 81,0 3,2 45 - 0,0 50 1.024,3
 
06:59 11,1 8,0 9,8 81,1 3,3 44 - 0,0 47 1.024,3
06:58 11,1 8,1 9,9 81,8 3,3 43 - 0,0 47 1.024,3
06:57 11,1 8,0 9,8 81,0 3,2 43 - 0,0 49 1.024,3
06:56 11,1 8,0 9,8 81,0 3,5 45 - 0,0 49 1.024,3
06:55 11,1 8,0 9,8 81,0 3,9 48 - 0,0 47 1.024,3
06:54 11,2 8,1 9,9 81,0 3,9 52 - 0,0 46 1.024,3
06:53 11,2 8,1 9,9 81,0 3,5 57 - 0,0 44 1.024,3
06:52 11,2 8,1 9,9 81,0 3,2 61 - 0,0 42 1.024,3
06:51 11,2 8,1 9,9 81,0 3,3 63 - 0,0 42 1.024,3
06:50 11,2 8,2 9,9 81,6 3,5 62 - 0,0 40 1.024,2
06:49 11,2 8,2 10,0 82,0 3,4 58 - 0,0 37 1.024,3
06:48 11,2 8,2 10,0 82,0 3,5 54 - 0,0 38 1.024,3
06:47 11,2 8,3 10,0 82,2 3,6 49 - 0,0 42 1.024,3
06:46 11,2 8,4 10,0 82,7 3,4 44 - 0,0 45 1.024,3
06:45 11,2 8,2 10,0 82,0 3,0 40 - 0,0 46 1.024,3
06:44 11,2 8,2 10,0 82,0 3,0 38 - 0,0 34 1.024,2
06:43 11,2 8,2 10,0 82,0 3,4 36 - 0,0 33 1.024,2
06:42 11,2 8,4 10,1 82,9 3,7 33 - 0,0 34 1.024,3
06:41 11,2 8,4 10,1 83,0 3,5 29 - 0,0 34 1.024,3
06:40 11,1 8,3 10,0 83,0 3,2 25 - 0,0 30 1.024,2
06:39 11,1 8,3 10,0 83,0 3,2 23 - 0,0 26 1.024,2
06:38 11,1 8,3 10,0 83,0 2,9 22 - 0,0 26 1.024,3
06:37 11,1 8,3 10,0 83,0 2,5 24 - 0,0 26 1.024,3
06:36 11,1 8,3 10,0 83,0 2,3 29 - 0,0 26 1.024,3
06:35 11,0 8,0 9,8 82,0 2,3 36 - 0,0 25 1.024,3
06:34 11,0 8,0 9,8 82,0 2,2 43 - 0,0 25 1.024,3
06:33 11,0 8,0 9,8 82,0 1,9 49 - 0,0 26 1.024,3
06:32 11,0 8,0 9,8 82,0 2,2 53 - 0,0 26 1.024,3
06:31 11,0 8,2 9,9 82,8 2,7 57 - 0,0 25 1.024,3
06:30 11,1 8,3 10,0 83,0 2,8 59 - 0,0 24 1.024,3
06:29 11,1 8,3 10,0 83,0 2,6 61 - 0,0 24 1.024,2
06:28 11,1 8,3 10,0 83,0 2,4 61 - 0,0 25 1.024,3
06:27 11,1 8,3 10,0 83,0 2,1 59 - 0,0 25 1.024,3
06:26 11,0 8,2 9,9 83,0 1,9 55 - 0,0 25 1.024,3
06:25 11,0 8,2 9,9 83,0 1,9 49 - 0,0 23 1.024,3
06:24 11,0 8,2 9,9 83,0 2,0 44 - 0,0 22 1.024,3
06:23 10,9 8,1 9,8 83,0 2,0 41 - 0,0 21 1.024,3
06:22 10,9 8,1 9,8 83,0 2,0 41 - 0,0 21 1.024,3
06:21 10,9 8,1 9,8 83,0 1,9 42 - 0,0 19 1.024,3
06:20 10,9 8,1 9,8 83,0 1,9 45 - 0,0 21 1.024,3
06:19 10,9 8,0 9,7 82,2 1,7 48 - 0,0 20 1.024,3
06:18 10,8 8,0 9,7 83,0 1,6 51 - 0,0 19 1.024,3
06:17 10,8 8,0 9,7 82,8 1,6 55 - 0,0 19 1.024,3
06:16 10,8 7,8 9,6 82,0 1,7 59 - 0,0 18 1.024,3
06:15 10,8 8,0 9,6 82,6 1,7 65 - 0,0 18 1.024,3
06:14 10,8 7,9 9,6 82,3 1,8 72 - 0,0 18 1.024,2
06:13 10,8 8,0 9,7 82,9 1,9 77 - 0,0 17 1.024,3
06:12 10,8 8,0 9,7 83,0 2,1 80 - 0,0 16 1.024,2
06:11 10,8 8,0 9,7 83,0 2,4 81 - 0,0 16 1.024,2
06:10 10,8 8,0 9,7 83,0 2,3 79 - 0,0 16 1.024,3
06:09 10,8 8,0 9,7 83,0 1,9 77 - 0,0 14 1.024,2
06:08 10,8 8,0 9,7 83,0 1,8 74 - 0,0 14 1.024,3
06:07 10,8 8,0 9,7 83,0 2,0 70 - 0,0 13 1.024,2
06:06 10,8 8,0 9,7 83,0 1,9 66 - 0,0 12 1.024,3
06:05 10,7 7,9 9,6 83,0 1,9 64 - 0,0 12 1.024,3
06:04 10,7 7,9 9,6 83,0 2,2 64 - 0,0 12 1.024,3
06:03 10,7 7,9 9,6 83,0 2,4 63 - 0,0 12 1.024,2
06:02 10,7 7,9 9,6 83,0 2,2 62 - 0,0 12 1.024,3
06:01 10,7 7,9 9,6 83,0 2,2 61 - 0,0 12 1.024,3
06:00 10,6 7,8 9,5 83,0 2,4 60 - 0,0 12 1.024,3
 
05:59 10,6 7,8 9,5 83,0 2,7 59 - 0,0 12 1.024,3
05:58 10,6 7,8 9,5 83,0 3,3 59 - 0,0 12 1.024,3
05:57 10,6 7,8 9,5 83,0 3,6 59 - 0,0 11 1.024,3
05:56 10,6 7,8 9,5 83,0 3,3 60 - 0,0 11 1.024,3
05:55 10,6 7,8 9,5 83,0 2,7 63 - 0,0 12 1.024,3
05:54 10,6 7,8 9,5 83,0 2,5 64 - 0,0 11 1.024,3
05:53 10,6 7,8 9,5 83,0 2,7 64 - 0,0 11 1.024,3
05:52 10,6 7,8 9,5 83,0 3,2 63 - 0,0 11 1.024,2
05:51 10,6 7,8 9,5 83,0 3,5 62 - 0,0 11 1.024,3
05:50 10,6 7,8 9,5 83,0 3,4 61 - 0,0 11 1.024,3
05:49 10,6 7,7 9,4 82,2 3,0 60 - 0,0 11 1.024,3
05:48 10,6 7,8 9,5 83,0 2,7 61 - 0,0 10 1.024,3
05:47 10,6 7,8 9,4 82,7 2,7 63 - 0,0 9 1.024,3
05:46 10,6 7,7 9,4 82,5 3,1 64 - 0,0 9 1.024,3
05:45 10,6 7,8 9,5 83,0 3,6 65 - 0,0 7 1.024,3
05:44 10,6 7,8 9,5 83,0 4,1 66 - 0,0 8 1.024,3
05:43 10,6 7,8 9,5 83,0 4,0 65 - 0,0 8 1.024,3
05:42 10,6 7,8 9,5 82,8 3,6 66 - 0,0 7 1.024,4
05:41 10,6 7,7 9,4 82,4 3,2 66 - 0,0 7 1.024,4
05:40 10,6 7,8 9,5 83,0 3,0 67 - 0,0 7 1.024,4
05:39 10,6 7,8 9,5 83,0 3,3 67 - 0,0 7 1.024,4
05:38 10,6 7,8 9,5 83,0 3,8 67 - 0,0 6 1.024,4
05:37 10,6 7,8 9,5 83,0 4,0 67 - 0,0 5 1.024,4
05:36 10,6 7,8 9,5 83,0 3,6 68 - 0,0 5 1.024,4
05:35 10,6 7,8 9,5 83,0 3,0 69 - 0,0 5 1.024,4
05:34 10,6 7,8 9,5 83,0 2,9 70 - 0,0 5 1.024,4
05:33 10,6 7,8 9,5 83,0 3,2 71 - 0,0 4 1.024,4
05:32 10,6 7,8 9,5 83,0 3,2 72 - 0,0 0 1.024,4
05:31 10,6 7,8 9,5 83,0 3,0 72 - 0,0 0 1.024,4
05:30 10,6 7,8 9,5 83,0 2,9 72 - 0,0 0 1.024,4
05:29 10,6 7,8 9,5 83,0 3,0 73 - 0,0 0 1.024,5
05:28 10,7 7,9 9,6 83,0 2,7 74 - 0,0 0 1.024,5
05:27 10,6 7,8 9,5 83,0 2,5 76 - 0,0 0 1.024,5
05:26 10,6 7,8 9,5 83,0 2,3 77 - 0,0 0 1.024,5
05:25 10,7 7,9 9,6 83,0 2,2 77 - 0,0 0 1.024,5
05:24 10,6 7,8 9,5 83,0 2,1 76 - 0,0 0 1.024,5
05:23 10,7 7,9 9,6 83,0 2,4 72 - 0,0 0 1.024,5
05:22 10,6 7,8 9,5 83,0 2,5 69 - 0,0 0 1.024,5
05:21 10,6 7,8 9,5 83,0 2,4 67 - 0,0 0 1.024,4
05:20 10,6 7,8 9,5 83,0 2,9 66 - 0,0 0 1.024,4
05:19 10,6 7,8 9,5 83,0 3,4 67 - 0,0 0 1.024,5
05:18 10,6 7,8 9,5 83,0 3,4 69 - 0,0 0 1.024,5
05:17 10,6 7,8 9,5 83,0 3,4 71 - 0,0 0 1.024,5
05:16 10,7 7,9 9,6 83,0 3,8 74 - 0,0 0 1.024,5
05:15 10,7 7,9 9,6 83,0 3,8 76 - 0,0 0 1.024,5
05:14 10,6 7,8 9,5 83,0 3,6 75 - 0,0 0 1.024,5
05:13 10,7 7,9 9,6 83,0 3,6 74 - 0,0 0 1.024,4
05:12 10,7 7,9 9,6 83,0 4,1 72 - 0,0 0 1.024,5
05:11 10,7 7,9 9,6 83,0 4,6 68 - 0,0 0 1.024,5
05:10 10,8 8,0 9,7 83,0 4,5 64 - 0,0 0 1.024,4
05:09 10,8 8,0 9,7 83,0 4,2 60 - 0,0 0 1.024,5
05:08 10,8 8,0 9,7 83,0 4,3 56 - 0,0 0 1.024,5
05:07 10,8 8,0 9,7 83,0 4,6 53 - 0,0 0 1.024,5
05:06 10,8 8,0 9,7 83,0 4,2 50 - 0,0 0 1.024,5
05:05 10,8 8,0 9,7 83,0 3,8 48 - 0,0 0 1.024,5
05:04 10,9 8,1 9,8 83,0 3,7 49 - 0,0 0 1.024,6
05:03 10,9 8,1 9,8 83,0 3,8 51 - 0,0 0 1.024,6
05:02 10,8 8,0 9,7 83,0 3,2 54 - 0,0 0 1.024,6
05:01 10,8 8,0 9,7 83,0 2,9 56 - 0,0 0 1.024,5
05:00 10,8 8,0 9,7 83,0 2,9 57 - 0,0 0 1.024,5
 
04:59 10,8 8,0 9,7 83,0 2,8 56 - 0,0 0 1.024,5
04:58 10,8 8,0 9,7 83,0 2,4 55 - 0,0 0 1.024,5
04:57 10,8 8,0 9,7 83,0 2,6 55 - 0,0 0 1.024,5
04:56 10,8 8,0 9,7 83,0 2,9 56 - 0,0 0 1.024,5
04:55 10,8 8,0 9,7 83,0 2,9 56 - 0,0 0 1.024,5
04:54 10,9 8,1 9,8 83,0 2,8 57 - 0,0 0 1.024,5
04:53 10,8 8,0 9,7 83,0 2,7 58 - 0,0 0 1.024,6
04:52 10,8 8,0 9,7 83,0 2,7 59 - 0,0 0 1.024,5
04:51 10,9 8,1 9,8 83,0 3,2 60 - 0,0 0 1.024,5
04:50 10,9 8,1 9,8 83,0 3,5 60 - 0,0 0 1.024,5
04:49 10,9 8,1 9,8 83,0 3,4 61 - 0,0 0 1.024,5
04:48 10,9 8,1 9,8 83,0 2,7 63 - 0,0 0 1.024,5
04:47 10,9 8,1 9,8 83,0 2,4 64 - 0,0 0 1.024,5
04:46 10,9 8,1 9,8 83,0 2,5 63 - 0,0 0 1.024,5
04:45 10,9 8,1 9,8 83,0 2,8 61 - 0,0 0 1.024,5
04:44 10,9 8,1 9,8 83,0 3,1 58 - 0,0 0 1.024,5
04:43 10,9 8,1 9,8 83,0 3,3 56 - 0,0 0 1.024,5
04:42 10,9 8,1 9,8 83,0 3,4 55 - 0,0 0 1.024,5
04:41 10,9 8,1 9,8 83,0 3,1 55 - 0,0 0 1.024,5
04:40 10,9 8,1 9,8 83,0 3,0 54 - 0,0 0 1.024,5
04:39 10,9 8,1 9,8 83,0 2,7 53 - 0,0 0 1.024,5
04:38 10,9 8,1 9,8 83,0 2,6 51 - 0,0 0 1.024,5
04:37 10,9 8,1 9,8 83,0 2,3 48 - 0,0 0 1.024,5
04:36 10,8 8,0 9,7 83,0 2,5 46 - 0,0 0 1.024,5
04:35 10,8 8,0 9,7 83,0 3,3 44 - 0,0 0 1.024,5
04:34 10,8 8,0 9,7 83,0 3,6 43 - 0,0 0 1.024,6
04:33 10,8 8,0 9,7 83,0 3,3 42 - 0,0 0 1.024,5
04:32 10,8 8,0 9,7 83,0 2,9 41 - 0,0 0 1.024,5
04:31 10,8 8,0 9,7 83,0 3,0 41 - 0,0 0 1.024,5
04:30 10,8 8,0 9,7 83,0 3,4 41 - 0,0 0 1.024,5
04:29 10,8 8,0 9,7 83,0 3,5 43 - 0,0 0 1.024,5
04:28 10,8 8,0 9,7 83,0 3,3 44 - 0,0 0 1.024,6
04:27 10,8 8,0 9,7 83,0 3,4 46 - 0,0 0 1.024,5
04:26 10,7 7,9 9,6 83,0 3,8 48 - 0,0 0 1.024,5
04:25 10,7 7,9 9,6 83,0 4,1 50 - 0,0 0 1.024,6
04:24 10,7 7,9 9,6 83,0 4,1 51 - 0,0 0 1.024,5
04:23 10,7 7,9 9,6 83,0 3,8 52 - 0,0 0 1.024,6
04:22 10,7 7,9 9,6 83,0 4,0 53 - 0,0 0 1.024,5
04:21 10,7 7,9 9,6 83,0 4,4 55 - 0,0 0 1.024,6
04:20 10,7 7,9 9,6 83,0 4,6 57 - 0,0 0 1.024,5
04:19 10,7 7,9 9,6 83,0 4,6 58 - 0,0 0 1.024,6
04:18 10,7 7,9 9,6 83,0 4,2 58 - 0,0 0 1.024,6
04:17 10,7 7,9 9,6 83,0 3,8 59 - 0,0 0 1.024,6
04:16 10,7 7,9 9,6 83,0 3,6 59 - 0,0 0 1.024,6
04:15 10,7 7,9 9,6 83,0 3,7 59 - 0,0 0 1.024,6
04:14 10,7 7,9 9,6 83,0 3,5 58 - 0,0 0 1.024,6
04:13 10,7 7,9 9,6 83,0 3,7 59 - 0,0 0 1.024,6
04:12 10,7 7,9 9,6 83,0 3,8 61 - 0,0 0 1.024,6
04:11 10,7 7,9 9,6 83,0 4,1 63 - 0,0 0 1.024,6
04:10 10,7 7,9 9,6 83,0 4,5 64 - 0,0 0 1.024,6
04:09 10,7 7,9 9,6 83,0 4,8 64 - 0,0 0 1.024,6
04:08 10,7 7,9 9,6 83,0 4,1 64 - 0,0 0 1.024,6
04:07 10,7 7,9 9,6 83,0 3,2 65 - 0,0 0 1.024,7
04:06 10,7 7,9 9,6 83,0 3,1 66 - 0,0 0 1.024,7
04:05 10,7 7,8 9,5 82,3 3,5 68 - 0,0 0 1.024,7
04:04 10,8 7,8 9,6 82,0 4,3 70 - 0,0 0 1.024,7
04:03 10,8 7,8 9,6 82,0 4,5 73 - 0,0 0 1.024,6
04:02 10,7 7,8 9,5 82,3 4,0 75 - 0,0 0 1.024,6
04:01 10,8 8,0 9,7 83,0 3,5 75 - 0,0 0 1.024,7
04:00 10,8 8,0 9,7 83,0 3,2 75 - 0,0 0 1.024,7
 
03:59 10,8 7,9 9,6 82,3 3,3 74 - 0,0 0 1.024,7
03:58 10,8 7,8 9,6 82,0 3,7 72 - 0,0 0 1.024,7
03:57 10,9 8,0 9,7 82,2 4,0 69 - 0,0 0 1.024,6
03:56 10,9 8,1 9,8 83,0 3,8 66 - 0,0 0 1.024,7
03:55 10,8 8,0 9,7 83,0 3,6 64 - 0,0 0 1.024,7
03:54 10,9 8,1 9,8 83,0 3,6 61 - 0,0 0 1.024,7
03:53 10,9 8,1 9,8 83,0 3,2 59 - 0,0 0 1.024,7
03:52 10,9 8,1 9,8 83,0 3,2 57 - 0,0 0 1.024,7
03:51 11,0 8,0 9,8 82,0 3,8 58 - 0,0 0 1.024,6
03:50 11,0 8,0 9,8 82,0 4,2 59 - 0,0 0 1.024,6
03:49 11,0 8,0 9,8 82,0 4,0 60 - 0,0 0 1.024,6
03:48 11,0 8,2 9,8 82,7 3,6 61 - 0,0 0 1.024,6
03:47 10,9 8,1 9,8 83,0 3,1 63 - 0,0 0 1.024,7
03:46 11,0 8,2 9,9 83,0 3,0 64 - 0,0 0 1.024,7
03:45 11,0 8,2 9,9 83,0 3,6 63 - 0,0 0 1.024,7
03:44 11,1 8,3 10,0 83,0 4,1 62 - 0,0 0 1.024,6
03:43 11,0 8,2 9,9 83,0 3,7 62 - 0,0 0 1.024,6
03:42 11,1 8,2 9,9 82,4 3,6 62 - 0,0 0 1.024,7
03:41 11,1 8,3 10,0 82,8 3,8 63 - 0,0 0 1.024,6
03:40 11,1 8,3 10,0 82,9 3,6 64 - 0,0 0 1.024,6
03:39 11,1 8,1 9,9 82,0 3,3 64 - 0,0 0 1.024,6
03:38 11,1 8,1 9,9 82,0 3,2 64 - 0,0 0 1.024,6
03:37 11,1 8,1 9,9 82,0 3,2 61 - 0,0 0 1.024,6
03:36 11,1 8,1 9,9 82,0 3,3 58 - 0,0 0 1.024,6
03:35 11,1 8,1 9,9 82,0 3,5 57 - 0,0 0 1.024,6
03:34 11,1 8,1 9,9 82,0 3,8 57 - 0,0 0 1.024,6
03:33 11,1 8,1 9,9 82,0 3,8 57 - 0,0 0 1.024,6
03:32 11,1 8,1 9,9 82,0 3,7 58 - 0,0 0 1.024,6
03:31 11,1 8,1 9,9 82,0 3,6 59 - 0,0 0 1.024,6
03:30 11,1 8,1 9,9 82,0 3,4 58 - 0,0 0 1.024,6
03:29 11,2 8,2 10,0 82,0 3,2 56 - 0,0 0 1.024,7
03:28 11,2 8,2 10,0 82,0 3,3 52 - 0,0 0 1.024,7
03:27 11,2 8,2 10,0 82,0 3,8 47 - 0,0 0 1.024,6
03:26 11,2 8,2 10,0 82,0 4,1 42 - 0,0 0 1.024,6
03:25 11,2 8,2 10,0 82,0 4,1 38 - 0,0 0 1.024,7
03:24 11,2 8,2 10,0 82,0 4,3 36 - 0,0 0 1.024,7
03:23 11,3 8,4 10,1 82,1 4,5 34 - 0,0 0 1.024,6
03:22 11,3 8,5 10,2 82,8 4,4 34 - 0,0 0 1.024,7
03:21 11,3 8,4 10,1 82,3 4,3 34 - 0,0 0 1.024,7
03:20 11,3 8,5 10,2 83,0 4,1 35 - 0,0 0 1.024,7
03:19 11,3 8,5 10,2 83,0 3,8 35 - 0,0 0 1.024,6
03:18 11,3 8,5 10,2 83,0 3,7 33 - 0,0 0 1.024,7
03:17 11,3 8,4 10,1 82,1 3,9 32 - 0,0 0 1.024,7
03:16 11,2 8,2 10,0 82,0 4,1 32 - 0,0 0 1.024,6
03:15 11,2 8,2 10,0 82,0 3,9 34 - 0,0 0 1.024,7
03:14 11,2 8,2 10,0 82,0 3,6 37 - 0,0 0 1.024,7
03:13 11,2 8,2 10,0 82,0 3,6 42 - 0,0 0 1.024,6
03:12 11,2 8,2 10,0 82,0 4,0 46 - 0,0 0 1.024,6
03:11 11,2 8,2 10,0 82,0 4,2 50 - 0,0 0 1.024,6
03:10 11,2 8,2 10,0 82,0 3,9 53 - 0,0 0 1.024,7
03:09 11,2 8,2 10,0 82,0 3,2 55 - 0,0 0 1.024,6
03:08 11,2 8,2 10,0 82,0 2,6 57 - 0,0 0 1.024,6
03:07 11,2 8,2 10,0 82,0 2,4 58 - 0,0 0 1.024,6
03:06 11,2 8,2 10,0 82,0 2,7 59 - 0,0 0 1.024,7
03:05 11,2 8,2 10,0 82,0 3,0 60 - 0,0 0 1.024,6
03:04 11,2 8,2 10,0 82,0 2,8 59 - 0,0 0 1.024,7
03:03 11,2 8,2 10,0 82,0 2,2 59 - 0,0 0 1.024,6
03:02 11,2 8,2 10,0 82,0 2,2 59 - 0,0 0 1.024,7
03:01 11,2 8,2 10,0 82,0 2,8 59 - 0,0 0 1.024,6
03:00 11,2 8,2 10,0 82,0 3,6 57 - 0,0 0 1.024,6
 
02:59 11,3 8,3 10,1 82,0 3,9 55 - 0,0 0 1.024,7
02:58 11,2 8,2 10,0 82,0 3,5 53 - 0,0 0 1.024,6
02:57 11,3 8,3 10,1 82,0 3,4 53 - 0,0 0 1.024,7
02:56 11,3 8,3 10,1 82,0 3,4 51 - 0,0 0 1.024,7
02:55 11,3 8,3 10,1 82,0 3,2 48 - 0,0 0 1.024,7
02:54 11,3 8,3 10,1 82,0 3,1 46 - 0,0 0 1.024,7
02:53 11,3 8,3 10,1 82,0 3,5 44 - 0,0 0 1.024,7
02:52 11,4 8,4 10,2 82,0 3,6 42 - 0,0 0 1.024,7
02:51 11,4 8,4 10,2 82,0 3,2 41 - 0,0 0 1.024,6
02:50 11,3 8,3 10,1 82,0 2,8 41 - 0,0 0 1.024,6
02:49 11,4 8,4 10,2 82,0 2,9 44 - 0,0 0 1.024,6
02:48 11,4 8,4 10,2 82,0 3,2 49 - 0,0 0 1.024,6
02:47 11,4 8,4 10,2 82,0 3,3 54 - 0,0 0 1.024,6
02:46 11,3 8,3 10,1 82,0 3,4 57 - 0,0 0 1.024,7
02:45 11,3 8,3 10,1 82,0 3,7 58 - 0,0 0 1.024,7
02:44 11,3 8,3 10,1 82,0 3,8 57 - 0,0 0 1.024,7
02:43 11,3 8,3 10,1 82,0 3,9 54 - 0,0 0 1.024,7
02:42 11,3 8,3 10,1 82,0 4,1 49 - 0,0 0 1.024,7
02:41 11,4 8,6 10,3 82,8 4,1 44 - 0,0 0 1.024,7
02:40 11,4 8,4 10,2 82,0 3,9 42 - 0,0 0 1.024,7
02:39 11,4 8,4 10,2 82,0 3,7 41 - 0,0 0 1.024,7
02:38 11,4 8,4 10,2 82,0 3,4 42 - 0,0 0 1.024,8
02:37 11,4 8,4 10,2 82,0 3,0 43 - 0,0 0 1.024,9
02:36 11,4 8,6 10,3 82,9 3,0 46 - 0,0 0 1.024,7
02:35 11,4 8,6 10,3 83,0 3,1 47 - 0,0 0 1.024,7
02:34 11,3 8,5 10,2 83,0 3,7 46 - 0,0 0 1.024,7
02:33 11,3 8,5 10,2 83,0 3,7 44 - 0,0 0 1.024,7
02:32 11,3 8,5 10,2 83,0 3,3 44 - 0,0 0 1.024,7
02:31 11,3 8,5 10,2 83,0 2,6 44 - 0,0 0 1.024,7
02:30 11,3 8,5 10,2 83,0 2,5 46 - 0,0 0 1.024,7
02:29 11,3 8,5 10,2 83,0 2,7 48 - 0,0 0 1.024,7
02:28 11,3 8,5 10,2 83,0 2,9 50 - 0,0 0 1.024,7
02:27 11,3 8,5 10,2 83,0 3,6 53 - 0,0 0 1.024,7
02:26 11,3 8,5 10,2 83,0 4,1 55 - 0,0 0 1.024,7
02:25 11,3 8,5 10,2 83,0 4,3 56 - 0,0 0 1.024,7
02:24 11,3 8,5 10,2 83,0 3,9 59 - 0,0 0 1.024,7
02:23 11,3 8,5 10,2 83,0 3,6 62 - 0,0 0 1.024,7
02:22 11,3 8,5 10,2 83,0 3,3 66 - 0,0 0 1.024,7
02:21 11,3 8,4 10,1 82,5 3,4 68 - 0,0 0 1.024,7
02:20 11,3 8,3 10,1 82,0 3,3 69 - 0,0 0 1.024,8
02:19 11,3 8,3 10,1 82,0 3,2 69 - 0,0 0 1.024,7
02:18 11,2 8,2 10,0 82,0 2,9 69 - 0,0 0 1.024,7
02:17 11,3 8,3 10,1 82,0 3,2 69 - 0,0 0 1.024,7
02:16 11,3 8,3 10,1 82,0 3,8 67 - 0,0 0 1.024,7
02:15 11,4 8,4 10,2 82,0 4,6 65 - 0,0 0 1.024,7
02:14 11,4 8,4 10,2 82,0 4,5 63 - 0,0 0 1.024,8
02:13 11,4 8,4 10,2 82,0 4,0 61 - 0,0 0 1.024,8
02:12 11,4 8,4 10,2 82,0 3,5 58 - 0,0 0 1.024,7
02:11 11,4 8,4 10,2 82,0 3,7 55 - 0,0 0 1.024,7
02:10 11,5 8,5 10,3 82,0 4,3 53 - 0,0 0 1.024,8
02:09 11,5 8,5 10,3 82,0 4,6 51 - 0,0 0 1.024,8
02:08 11,5 8,7 10,4 82,7 4,5 51 - 0,0 0 1.024,7
02:07 11,5 8,7 10,4 83,0 4,3 51 - 0,0 0 1.024,7
02:06 11,5 8,7 10,4 83,0 3,9 51 - 0,0 0 1.024,8
02:05 11,5 8,7 10,4 83,0 3,4 52 - 0,0 0 1.024,8
02:04 11,6 8,8 10,5 83,0 3,1 52 - 0,0 0 1.024,8
02:03 11,5 8,7 10,4 83,0 2,8 53 - 0,0 0 1.024,8
02:02 11,5 8,7 10,4 83,0 2,5 53 - 0,0 0 1.024,9
02:01 11,5 8,7 10,4 83,0 2,7 54 - 0,0 0 1.024,8
02:00 11,5 8,7 10,4 83,0 2,9 56 - 0,0 0 1.024,8
 
01:59 11,5 8,7 10,4 83,0 2,8 61 - 0,0 0 1.024,8
01:58 11,5 8,7 10,4 83,0 1,9 66 - 0,0 0 1.024,8
01:57 11,5 8,7 10,4 83,0 2,2 70 - 0,0 0 1.024,8
01:56 11,5 8,7 10,4 83,0 2,7 71 - 0,0 0 1.024,9
01:55 11,5 8,7 10,4 83,0 2,8 71 - 0,0 0 1.024,8
01:54 11,6 8,8 10,5 83,0 2,4 69 - 0,0 0 1.024,8
01:53 11,5 8,7 10,4 83,0 2,3 66 - 0,0 0 1.024,8
01:52 11,5 8,7 10,4 83,0 2,3 63 - 0,0 0 1.024,8
01:51 11,5 8,7 10,4 83,0 2,1 62 - 0,0 0 1.024,8
01:50 11,4 8,6 10,3 83,0 2,2 62 - 0,0 0 1.024,9
01:49 11,5 8,6 10,3 82,1 2,5 62 - 0,0 0 1.024,8
01:48 11,4 8,4 10,2 82,0 2,7 62 - 0,0 0 1.024,8
01:47 11,4 8,4 10,2 82,0 2,8 63 - 0,0 0 1.024,8
01:46 11,4 8,4 10,2 82,0 3,0 66 - 0,0 0 1.024,8
01:45 11,4 8,4 10,2 82,0 3,2 69 - 0,0 0 1.024,8
01:44 11,4 8,4 10,2 82,0 2,8 72 - 0,0 0 1.024,8
01:43 11,4 8,4 10,2 82,0 2,5 73 - 0,0 0 1.024,9
01:42 11,5 8,5 10,3 82,0 2,8 72 - 0,0 0 1.024,8
01:41 11,5 8,5 10,3 82,0 3,1 68 - 0,0 0 1.024,8
01:40 11,5 8,5 10,3 82,0 2,7 63 - 0,0 0 1.024,9
01:39 11,4 8,4 10,2 82,0 2,6 57 - 0,0 0 1.024,9
01:38 11,4 8,4 10,2 82,0 2,9 53 - 0,0 0 1.024,9
01:37 11,4 8,4 10,2 82,0 3,3 50 - 0,0 0 1.024,9
01:36 11,4 8,4 10,2 82,0 3,6 49 - 0,0 0 1.024,8
01:35 11,4 8,4 10,2 82,0 3,8 50 - 0,0 0 1.024,9
01:34 11,4 8,4 10,2 82,0 3,7 51 - 0,0 0 1.024,9
01:33 11,4 8,4 10,2 82,0 3,2 52 - 0,0 0 1.024,8
01:32 11,4 8,4 10,2 82,0 2,7 54 - 0,0 0 1.024,9
01:31 11,4 8,4 10,2 82,0 2,6 55 - 0,0 0 1.024,8
01:30 11,4 8,4 10,2 82,0 2,8 55 - 0,0 0 1.024,8
01:29 11,4 8,4 10,2 82,0 2,3 55 - 0,0 0 1.024,8
01:28 11,4 8,4 10,2 82,0 1,9 55 - 0,0 0 1.024,8
01:27 11,4 8,4 10,2 82,0 2,2 54 - 0,0 0 1.024,8
01:26 11,3 8,3 10,1 82,0 2,6 53 - 0,0 0 1.024,8
01:25 11,3 8,3 10,1 82,0 2,6 53 - 0,0 0 1.024,9
01:24 11,3 8,3 10,1 82,0 2,3 53 - 0,0 0 1.024,9
01:23 11,3 8,3 10,1 82,0 2,6 52 - 0,0 0 1.024,9
01:22 11,3 8,3 10,1 82,0 3,0 52 - 0,0 0 1.024,9
01:21 11,3 8,3 10,1 82,0 3,2 54 - 0,0 0 1.024,9
01:20 11,3 8,3 10,1 82,0 3,1 56 - 0,0 0 1.024,9
01:19 11,3 8,3 10,1 82,0 3,6 58 - 0,0 0 1.024,9
01:18 11,3 8,3 10,1 82,0 4,1 59 - 0,0 0 1.024,9
01:17 11,3 8,3 10,1 82,0 4,4 61 - 0,0 0 1.024,9
01:16 11,3 8,3 10,1 82,0 4,2 62 - 0,0 0 1.024,9
01:15 11,3 8,3 10,1 82,0 4,3 63 - 0,0 0 1.024,9
01:14 11,3 8,3 10,1 82,0 4,3 65 - 0,0 0 1.024,9
01:13 11,3 8,3 10,1 82,0 4,5 67 - 0,0 0 1.024,9
01:12 11,3 8,3 10,1 82,0 4,6 69 - 0,0 0 1.024,9
01:11 11,3 8,3 10,1 82,0 4,6 70 - 0,0 0 1.024,9
01:10 11,4 8,4 10,2 82,0 4,1 71 - 0,0 0 1.024,8
01:09 11,4 8,4 10,2 82,0 4,0 69 - 0,0 0 1.024,9
01:08 11,4 8,4 10,2 82,0 3,9 66 - 0,0 0 1.024,9
01:07 11,4 8,4 10,2 82,0 3,8 63 - 0,0 0 1.024,8
01:06 11,4 8,4 10,2 82,0 3,6 60 - 0,0 0 1.024,9
01:05 11,4 8,4 10,2 82,0 3,8 58 - 0,0 0 1.024,9
01:04 11,4 8,4 10,2 82,0 3,5 57 - 0,0 0 1.024,8
01:03 11,4 8,4 10,2 82,0 2,8 58 - 0,0 0 1.024,9
01:02 11,4 8,4 10,2 82,0 2,4 61 - 0,0 0 1.024,9
01:01 11,4 8,4 10,2 82,0 2,4 62 - 0,0 0 1.024,9
01:00 11,4 8,4 10,2 82,0 2,4 63 - 0,0 0 1.024,9
 
00:59 11,4 8,4 10,2 82,0 2,7 62 - 0,0 0 1.024,8
00:58 11,4 8,4 10,2 82,0 3,6 60 - 0,0 0 1.024,8
00:57 11,4 8,4 10,2 82,0 4,3 58 - 0,0 0 1.024,8
00:56 11,4 8,4 10,2 82,0 4,4 57 - 0,0 0 1.024,9
00:55 11,4 8,4 10,2 82,0 4,5 57 - 0,0 0 1.024,9
00:54 11,4 8,4 10,2 82,0 4,6 58 - 0,0 0 1.024,9
00:53 11,4 8,4 10,2 82,0 4,3 59 - 0,0 0 1.024,9
00:52 11,4 8,6 10,3 82,7 4,2 60 - 0,0 0 1.024,9
00:51 11,4 8,5 10,2 82,2 3,8 62 - 0,0 0 1.024,9
00:50 11,4 8,6 10,3 82,7 3,4 62 - 0,0 0 1.024,9
00:49 11,4 8,4 10,2 82,0 3,2 61 - 0,0 0 1.024,9
00:48 11,3 8,3 10,1 82,0 3,4 60 - 0,0 0 1.024,9
00:47 11,3 8,3 10,1 82,0 3,8 59 - 0,0 0 1.024,9
00:46 11,3 8,3 10,1 82,0 4,2 59 - 0,0 0 1.024,9
00:45 11,3 8,3 10,1 82,0 4,1 60 - 0,0 0 1.024,8
00:44 11,3 8,3 10,1 82,0 3,6 61 - 0,0 0 1.024,8
00:43 11,3 8,3 10,1 82,0 3,3 62 - 0,0 0 1.024,8
00:42 11,3 8,3 10,1 82,0 3,7 64 - 0,0 0 1.024,8
00:41 11,3 8,3 10,1 82,0 3,9 65 - 0,0 0 1.024,7
00:40 11,3 8,3 10,1 82,0 3,6 68 - 0,0 0 1.024,8
00:39 11,3 8,3 10,1 82,0 2,8 70 - 0,0 0 1.024,8
00:38 11,3 8,3 10,1 82,0 2,3 72 - 0,0 0 1.024,8
00:37 11,3 8,3 10,1 82,0 2,5 73 - 0,0 0 1.024,8
00:36 11,3 8,3 10,1 82,0 3,5 73 - 0,0 0 1.024,8
00:35 11,3 8,3 10,1 82,0 4,1 70 - 0,0 0 1.024,8
00:34 11,3 8,3 10,1 82,0 4,0 67 - 0,0 0 1.024,8
00:33 11,3 8,3 10,1 82,0 3,8 65 - 0,0 0 1.024,8
00:32 11,3 8,3 10,1 82,0 3,8 63 - 0,0 0 1.024,8
00:31 11,4 8,4 10,2 82,0 3,5 61 - 0,0 0 1.024,8
00:30 11,4 8,4 10,2 82,0 2,7 61 - 0,0 0 1.024,8
00:29 11,4 8,4 10,2 82,0 2,6 62 - 0,0 0 1.024,8
00:28 11,4 8,4 10,2 82,0 2,9 63 - 0,0 0 1.024,7
00:27 11,4 8,4 10,2 82,0 3,5 64 - 0,0 0 1.024,7
00:26 11,4 8,4 10,2 82,0 3,4 63 - 0,0 0 1.024,7
00:25 11,4 8,4 10,2 82,0 3,2 63 - 0,0 0 1.024,7
00:24 11,4 8,4 10,2 82,0 3,2 64 - 0,0 0 1.024,7
00:23 11,4 8,4 10,2 82,0 3,5 64 - 0,0 0 1.024,7
00:22 11,4 8,4 10,2 82,0 3,7 62 - 0,0 0 1.024,6
00:21 11,3 8,3 10,1 82,0 3,9 60 - 0,0 0 1.024,6
00:20 11,4 8,4 10,2 82,0 4,1 59 - 0,0 0 1.024,6
00:19 11,5 8,5 10,3 82,0 4,2 58 - 0,0 0 1.024,6
00:18 11,5 8,5 10,3 82,0 3,8 56 - 0,0 0 1.024,6
00:17 11,5 8,5 10,3 82,0 3,5 56 - 0,0 0 1.024,6
00:16 11,5 8,5 10,3 82,0 3,6 59 - 0,0 0 1.024,6
00:15 11,5 8,5 10,3 82,0 3,5 63 - 0,0 0 1.024,5
00:14 11,5 8,6 10,3 82,3 3,1 67 - 0,0 0 1.024,6
00:13 11,5 8,7 10,4 83,0 3,1 68 - 0,0 0 1.024,6
00:12 11,5 8,6 10,3 82,5 3,3 67 - 0,0 0 1.024,6
00:11 11,4 8,4 10,2 82,0 3,5 65 - 0,0 0 1.024,7
00:10 11,5 8,5 10,3 82,0 4,1 62 - 0,0 0 1.024,7
00:09 11,4 8,4 10,2 82,0 4,4 59 - 0,0 0 1.024,6
00:08 11,4 8,4 10,2 82,0 4,2 55 - 0,0 0 1.024,7
00:07 11,4 8,4 10,2 82,0 4,1 53 - 0,0 0 1.024,6
00:06 11,4 8,4 10,2 82,0 4,3 52 - 0,0 0 1.024,6
00:05 11,4 8,4 10,2 82,0 4,2 53 - 0,0 0 1.024,6
00:04 11,4 8,4 10,2 82,0 3,9 56 - 0,0 0 1.024,6
00:03 11,4 8,4 10,2 82,0 3,6 58 - 0,0 0 1.024,6
00:02 11,4 8,4 10,2 82,0 3,6 62 - 0,0 0 1.024,6
00:01 11,4 8,4 10,2 82,0 3,9 65 - 0,0 0 1.024,6
00:00 11,4 8,4 10,2 82,0 4,6 67 - 0,0 0 1.024,6
 
23:59 11,5 8,5 10,3 82,0 5,0 69 - 0,0 0 1.024,6
23:58 11,5 8,5 10,3 82,0 4,8 70 - 0,0 0 1.024,6
23:57 11,5 8,5 10,3 82,0 4,6 71 - 0,0 0 1.024,6
23:56 11,5 8,5 10,3 82,0 4,6 72 - 0,0 0 1.024,7
23:55 11,6 8,6 10,4 82,0 4,7 72 - 0,0 0 1.024,7
23:54 11,6 8,6 10,4 82,0 4,3 70 - 0,0 0 1.024,7
23:53 11,6 8,5 10,3 81,1 4,1 67 - 0,0 0 1.024,7
23:52 11,6 8,4 10,3 81,0 4,2 64 - 0,0 0 1.024,7
23:51 11,6 8,4 10,3 81,0 4,4 61 - 0,0 0 1.024,7
23:50 11,6 8,4 10,3 81,0 4,6 60 - 0,0 0 1.024,7
23:49 11,7 8,5 10,4 81,0 4,9 60 - 0,0 0 1.024,7
23:48 11,7 8,5 10,4 81,0 5,3 59 - 0,0 0 1.024,8
23:47 11,8 8,6 10,5 81,0 5,2 57 - 0,0 0 1.024,8
23:46 11,8 8,6 10,5 81,0 4,7 55 - 0,0 0 1.024,8
23:45 11,8 8,6 10,5 81,0 4,3 53 - 0,0 0 1.024,8
23:44 11,8 8,6 10,5 81,0 4,1 51 - 0,0 0 1.024,8
23:43 11,8 8,6 10,5 81,0 4,0 49 - 0,0 0 1.024,8
23:42 11,9 8,7 10,6 81,0 4,3 49 - 0,0 0 1.024,8
23:41 11,9 8,7 10,6 81,0 4,7 50 - 0,0 0 1.024,8
23:40 11,9 8,7 10,6 81,0 4,8 51 - 0,0 0 1.024,8
23:39 11,9 8,7 10,6 81,0 4,5 51 - 0,0 0 1.024,8
23:38 12,0 8,8 10,7 81,0 3,6 50 - 0,0 0 1.024,8
23:37 12,0 8,8 10,7 81,0 2,8 50 - 0,0 0 1.024,8
23:36 12,0 8,8 10,7 81,0 2,5 48 - 0,0 0 1.024,8
23:35 12,0 8,8 10,7 81,0 3,0 47 - 0,0 0 1.024,9
23:34 12,0 8,8 10,7 81,0 3,7 45 - 0,0 0 1.024,9
23:33 11,9 8,7 10,6 81,0 4,3 43 - 0,0 0 1.025,0
23:32 11,9 8,7 10,6 81,0 4,3 42 - 0,0 0 1.025,0
23:31 11,9 8,7 10,6 81,0 4,0 41 - 0,0 0 1.024,9
23:30 11,9 8,7 10,6 81,0 4,0 41 - 0,0 0 1.024,9
23:29 11,9 8,7 10,6 81,0 3,9 41 - 0,0 0 1.024,9
23:28 11,9 8,7 10,6 81,0 3,8 43 - 0,0 0 1.024,9
23:27 11,9 8,7 10,6 81,0 4,1 45 - 0,0 0 1.024,9
23:26 11,9 8,7 10,6 81,0 4,6 47 - 0,0 0 1.025,0
23:25 11,9 8,7 10,6 81,0 4,7 48 - 0,0 0 1.024,9
23:24 12,0 8,8 10,7 81,0 4,7 51 - 0,0 0 1.025,0
23:23 12,0 8,8 10,7 81,0 4,7 53 - 0,0 0 1.025,0
23:22 12,0 8,8 10,7 81,0 4,9 56 - 0,0 0 1.024,9
23:21 12,0 8,8 10,7 81,0 4,8 58 - 0,0 0 1.024,9
23:20 12,0 8,8 10,7 81,0 4,2 59 - 0,0 0 1.024,9
23:19 12,0 8,8 10,7 81,0 3,5 58 - 0,0 0 1.024,8
23:18 12,0 8,8 10,7 81,0 3,9 56 - 0,0 0 1.024,9
23:17 12,0 8,8 10,7 81,0 4,8 54 - 0,0 0 1.025,0
23:16 12,1 8,9 10,8 81,0 5,2 53 - 0,0 0 1.024,9
23:15 12,1 8,9 10,8 81,0 5,3 53 - 0,0 0 1.024,9
23:14 12,1 8,9 10,8 81,0 5,0 52 - 0,0 0 1.024,9
23:13 12,1 8,9 10,8 81,0 4,7 52 - 0,0 0 1.024,7
23:12 12,2 9,0 10,9 81,0 4,8 53 - 0,0 0 1.024,8
23:11 12,2 9,0 10,9 81,0 4,6 53 - 0,0 0 1.024,8
23:09 12,2 9,0 10,9 81,0 3,7 53 - 0,0 0 1.024,8
23:08 12,2 9,0 10,9 81,0 3,4 53 - 0,0 0 1.024,8
23:07 12,2 9,0 10,9 81,0 3,5 53 - 0,0 0 1.024,8
23:06 12,2 9,0 10,9 81,0 3,2 52 - 0,0 0 1.024,8
23:05 12,2 9,0 10,9 81,0 2,9 51 - 0,0 0 1.024,7
23:04 12,2 9,0 10,9 81,0 3,0 49 - 0,0 0 1.024,8
23:03 12,2 9,1 10,9 81,4 2,8 48 - 0,0 0 1.024,8
23:01 12,2 9,0 10,9 81,0 2,8 48 - 0,0 0 1.024,7
23:00 12,2 9,0 10,9 81,0 3,0 49 - 0,0 0 1.024,7
 
22:59 12,2 9,0 10,9 81,0 3,5 50 - 0,0 0 1.024,7
22:58 12,2 9,0 10,9 81,0 4,0 50 - 0,0 0 1.024,7
22:57 12,2 9,0 10,9 81,0 4,5 50 - 0,0 0 1.024,7
22:56 12,3 9,1 11,0 81,0 4,5 50 - 0,0 0 1.024,7
22:55 12,3 9,1 11,0 81,0 4,2 49 - 0,0 0 1.024,7
22:53 12,3 9,1 11,0 81,0 4,3 48 - 0,0 0 1.024,6
22:52 12,4 9,2 11,1 81,0 4,3 46 - 0,0 0 1.024,7
22:51 12,4 9,2 11,1 81,0 4,2 45 - 0,0 0 1.024,6
22:50 12,4 9,2 11,1 81,0 4,0 44 - 0,0 0 1.024,6
22:48 12,4 9,2 11,1 81,0 4,2 44 - 0,0 0 1.024,6
22:47 12,4 9,2 11,1 81,0 4,2 44 - 0,0 0 1.024,6
22:46 12,4 9,2 11,1 81,0 4,2 45 - 0,0 0 1.024,7
22:45 12,4 9,2 11,1 81,0 4,1 44 - 0,0 0 1.024,7
22:44 12,5 9,3 11,2 81,0 4,2 43 - 0,0 0 1.024,7
22:43 12,5 9,3 11,2 81,0 4,3 41 - 0,0 0 1.024,6
22:42 12,5 9,3 11,2 81,0 4,0 39 - 0,0 0 1.024,7
22:39 12,5 9,3 11,2 81,0 3,7 39 - 0,0 0 1.024,7
22:38 12,5 9,3 11,2 81,0 3,5 41 - 0,0 0 1.024,7
22:37 12,5 9,3 11,2 81,0 3,6 44 - 0,0 0 1.024,7
22:34 12,5 9,3 11,2 81,0 4,0 49 - 0,0 0 1.024,7
22:33 12,5 9,3 11,2 81,0 4,2 52 - 0,0 0 1.024,7
22:32 12,5 9,3 11,2 81,0 4,3 55 - 0,0 0 1.024,6
22:31 12,5 9,2 11,1 80,3 4,6 56 - 0,0 0 1.024,7
22:30 12,6 9,2 11,2 80,0 5,0 56 - 0,0 0 1.024,7
22:29 12,6 9,2 11,2 80,0 5,1 56 - 0,0 0 1.024,7
22:28 12,6 9,2 11,2 80,0 4,9 55 - 0,0 0 1.024,7
22:27 12,6 9,2 11,2 80,0 4,7 54 - 0,0 0 1.024,7
22:26 12,6 9,2 11,2 80,0 4,5 54 - 0,0 0 1.024,7
22:25 12,7 9,3 11,3 80,0 4,6 53 - 0,0 0 1.024,7
22:24 12,7 9,3 11,3 80,0 4,7 51 - 0,0 0 1.024,6
22:23 12,7 9,3 11,3 80,0 4,6 49 - 0,0 0 1.024,7
22:22 12,8 9,4 11,4 80,0 4,9 46 - 0,0 0 1.024,6
22:20 12,8 9,4 11,4 80,0 5,1 44 - 0,0 0 1.024,7
22:18 12,9 9,5 11,5 80,0 4,8 43 - 0,0 0 1.024,6
22:17 12,9 9,5 11,5 80,0 4,4 42 - 0,0 0 1.024,6
22:16 12,9 9,5 11,5 80,0 4,5 41 - 0,0 0 1.024,6
22:15 12,9 9,5 11,5 80,0 4,8 42 - 0,0 0 1.024,6
22:14 12,9 9,4 11,4 79,4 4,8 42 - 0,0 0 1.024,5
22:13 13,0 9,6 11,5 79,8 5,1 42 - 0,0 0 1.024,5
22:12 13,0 9,6 11,6 80,0 5,1 41 - 0,0 0 1.024,6
22:11 13,0 9,6 11,6 80,0 4,8 40 - 0,0 0 1.024,6
22:10 13,1 9,7 11,7 80,0 4,8 41 - 0,0 0 1.024,6
22:09 13,1 9,7 11,7 80,0 5,0 42 - 0,0 0 1.024,6
22:07 13,1 9,7 11,7 80,0 5,3 43 - 0,0 0 1.024,5
22:06 13,1 9,7 11,6 79,9 5,3 44 - 0,0 0 1.024,6
22:05 13,2 9,6 11,6 79,0 5,4 46 - 0,0 0 1.024,5
22:03 13,2 9,6 11,6 79,0 5,7 47 - 0,0 0 1.024,5
22:02 13,3 9,7 11,7 79,0 5,4 48 - 0,0 0 1.024,4
22:01 13,3 9,7 11,7 79,0 5,0 49 - 0,0 0 1.024,4
22:00 13,4 9,8 11,8 79,0 4,7 49 - 0,0 0 1.024,4
 
21:58 13,5 9,9 11,9 79,0 4,6 49 - 0,0 0 1.024,5
21:57 13,5 9,9 11,9 79,0 4,2 47 - 0,0 0 1.024,5
21:56 13,5 9,9 11,9 79,0 3,9 43 - 0,0 0 1.024,5
21:55 13,5 9,9 11,9 79,0 4,1 39 - 0,0 0 1.024,4
21:54 13,6 10,0 12,0 79,0 4,3 35 - 0,0 0 1.024,4
21:52 13,6 10,0 12,0 79,0 4,6 33 - 0,0 0 1.024,4
21:51 13,7 10,1 12,1 79,0 4,7 33 - 0,0 0 1.024,4
21:50 13,7 10,1 12,1 79,0 4,2 34 - 0,0 5 1.024,4
21:49 13,7 10,1 12,1 79,0 3,7 36 - 0,0 5 1.024,4
21:48 13,8 10,2 12,2 79,0 3,7 38 - 0,0 5 1.024,4
21:47 13,7 10,1 12,1 79,0 3,5 37 - 0,0 5 1.024,4
21:46 13,7 10,0 12,1 78,6 3,3 33 - 0,0 5 1.024,4
21:45 13,8 10,1 12,2 78,6 3,8 28 - 0,0 5 1.024,4
21:44 13,8 10,2 12,2 79,0 4,4 24 - 0,0 7 1.024,4
21:43 13,8 10,2 12,2 79,0 4,8 23 - 0,0 7 1.024,4
21:42 13,8 10,2 12,2 78,8 4,3 25 - 0,0 7 1.024,4
21:41 13,9 10,1 12,2 78,0 3,7 30 - 0,0 7 1.024,4
21:39 13,9 10,1 12,2 78,0 4,1 36 - 0,0 7 1.024,4
21:38 14,0 10,2 12,3 78,0 4,6 42 - 0,0 8 1.024,4
21:37 14,0 10,2 12,3 78,0 4,2 45 - 0,0 9 1.024,4
21:36 14,0 10,2 12,3 78,0 3,9 45 - 0,0 9 1.024,3
21:35 14,1 10,3 12,4 78,0 4,0 42 - 0,0 9 1.024,3
21:34 14,1 10,3 12,4 78,0 4,3 40 - 0,0 11 1.024,4
21:33 14,1 10,3 12,4 78,0 4,3 39 - 0,0 11 1.024,4
21:32 14,2 10,4 12,5 78,0 4,5 37 - 0,0 11 1.024,4
21:31 14,2 10,4 12,5 78,0 4,4 36 - 0,0 11 1.024,3
21:30 14,3 10,5 12,6 77,8 4,3 35 - 0,0 12 1.024,2
21:28 14,3 10,3 12,5 77,0 4,1 34 - 0,0 12 1.024,3
21:27 14,4 10,4 12,6 77,0 4,3 33 - 0,0 12 1.024,3
21:26 14,5 10,5 12,7 77,0 4,4 30 - 0,0 14 1.024,3
21:25 14,5 10,5 12,7 77,0 4,0 29 - 0,0 14 1.024,3
21:24 14,6 10,6 12,8 77,0 3,6 29 - 0,0 14 1.024,3
21:23 14,6 10,6 12,8 77,0 3,4 29 - 0,0 14 1.024,3
21:22 14,6 10,6 12,8 77,0 3,8 30 - 0,0 14 1.024,3
21:21 14,7 10,7 12,9 77,0 4,3 34 - 0,0 16 1.024,3
21:20 14,7 10,6 12,8 76,2 4,4 39 - 0,0 16 1.024,3
21:19 14,8 10,6 12,9 76,2 4,1 43 - 0,0 17 1.024,4
21:18 14,8 10,8 13,0 77,0 4,1 44 - 0,0 18 1.024,4
21:15 14,9 10,9 13,1 77,0 4,0 45 - 0,0 21 1.024,3
21:14 14,9 10,9 13,1 77,0 3,6 44 - 0,0 22 1.024,3
21:13 14,9 10,9 13,1 77,0 3,7 41 - 0,0 22 1.024,3
21:12 14,9 10,9 13,1 77,0 3,8 38 - 0,0 24 1.024,3
21:11 14,9 10,9 13,1 77,0 3,9 36 - 0,0 26 1.024,3
21:10 14,9 10,9 13,1 77,0 3,9 36 - 0,0 26 1.024,4
21:09 14,9 10,9 13,1 77,0 4,2 36 - 0,0 26 1.024,3
21:07 15,0 10,8 13,1 76,0 5,0 34 - 0,0 29 1.024,3
21:06 15,1 10,9 13,2 76,0 5,1 31 - 0,0 31 1.024,3
21:05 15,1 10,9 13,2 76,0 4,5 27 - 0,0 32 1.024,3
21:04 15,1 10,9 13,2 76,0 4,4 23 - 0,0 33 1.024,3
21:02 15,2 11,0 13,3 76,0 4,4 20 - 0,0 36 1.024,3
21:01 15,2 11,0 13,3 76,0 4,7 19 - 0,0 37 1.024,3
21:00 15,2 11,0 13,3 76,0 4,8 20 - 0,0 38 1.024,4
 
20:58 15,2 10,8 13,1 75,0 5,2 20 - 0,0 40 1.024,3
20:57 15,3 10,8 13,1 74,3 5,3 20 - 0,0 43 1.024,4
20:56 15,3 10,7 13,1 74,0 5,2 19 - 0,0 44 1.024,3
20:55 15,3 10,7 13,1 74,0 4,8 20 - 0,0 45 1.024,4
20:54 15,4 10,8 13,2 74,0 4,9 21 - 0,0 47 1.024,3
20:53 15,4 10,8 13,2 74,0 4,7 23 - 0,0 49 1.024,3
20:52 15,4 10,9 13,3 74,7 4,6 28 - 0,0 49 1.024,3
20:51 15,4 11,0 13,3 75,0 4,4 33 - 0,0 52 1.024,3
20:50 15,4 10,8 13,2 74,2 4,4 37 - 0,0 53 1.024,3
20:49 15,5 11,0 13,4 74,8 4,6 38 - 0,0 54 1.024,3
20:48 15,5 10,9 13,3 74,0 4,9 38 - 0,0 55 1.024,2
20:47 15,6 11,1 13,5 74,5 5,0 37 - 0,0 58 1.024,3
20:46 15,6 11,2 13,5 75,0 4,8 36 - 0,0 60 1.024,3
20:45 15,6 11,2 13,5 75,0 4,6 36 - 0,0 61 1.024,3
20:44 15,6 11,0 13,4 74,1 4,7 36 - 0,0 63 1.024,3
20:43 15,7 11,1 13,5 74,3 5,0 37 - 0,0 64 1.024,3
20:42 15,7 11,3 13,6 75,0 4,9 39 - 0,0 67 1.024,3
20:40 15,7 11,5 13,7 76,0 4,8 41 - 0,0 70 1.024,3
20:39 15,7 11,7 13,9 76,9 4,6 43 - 0,0 70 1.024,3
20:38 15,7 11,5 13,8 76,1 4,6 45 - 0,0 71 1.024,2
20:37 15,6 11,4 13,6 76,0 4,9 46 - 0,0 74 1.024,3
20:36 15,6 11,4 13,6 76,0 5,2 43 - 0,0 77 1.024,3
20:35 15,6 11,4 13,6 76,0 5,3 38 - 0,0 79 1.024,2
20:34 15,7 11,5 13,7 76,0 5,2 32 - 0,0 81 1.024,3
20:33 15,6 11,4 13,6 76,0 5,0 25 - 0,0 83 1.024,2
20:32 15,6 11,4 13,6 76,0 4,7 18 - 0,0 87 1.024,2
20:31 15,6 11,4 13,6 76,0 5,0 12 - 0,0 90 1.024,3
20:29 15,7 11,5 13,7 76,0 5,6 7 - 0,0 91 1.024,3
20:28 15,7 11,5 13,7 76,0 5,8 5 - 0,0 95 1.024,2
20:27 15,7 11,5 13,7 76,0 5,7 5 - 0,0 96 1.024,2
20:25 15,7 11,4 13,7 75,7 5,6 6 - 0,0 98 1.024,3
20:24 15,7 11,4 13,7 75,5 5,6 11 - 0,0 98 1.024,2
20:23 15,7 11,5 13,7 76,0 5,7 18 - 0,0 102 1.024,3
20:22 15,7 11,3 13,7 75,3 5,5 25 - 0,0 106 1.024,3
20:21 15,8 11,4 13,7 75,0 5,7 29 - 0,0 108 1.024,3
20:20 15,8 11,4 13,7 75,0 6,0 31 - 0,0 110 1.024,3
20:19 15,9 11,5 13,8 75,0 5,7 33 - 0,0 113 1.024,3
20:18 15,9 11,5 13,8 75,0 5,7 33 - 0,0 117 1.024,3
20:17 15,9 11,5 13,8 75,0 5,7 32 - 0,0 120 1.024,3
20:16 15,9 11,5 13,8 75,0 5,3 29 - 0,0 118 1.024,3
20:15 16,0 11,6 13,9 75,0 5,0 27 - 0,0 120 1.024,3
20:14 16,1 11,7 14,0 75,0 4,7 25 - 0,0 123 1.024,3
20:13 16,0 11,6 13,9 75,0 5,1 24 - 0,0 123 1.024,4
20:11 16,0 11,6 13,9 75,0 5,4 24 - 0,0 135 1.024,2
20:10 16,1 11,7 14,0 75,0 5,3 26 - 0,0 139 1.024,2
20:09 16,1 11,7 14,0 75,0 5,4 32 - 0,0 140 1.024,2
20:08 16,1 11,7 14,0 75,0 5,1 39 - 0,0 142 1.024,3
20:06 16,0 11,6 13,9 75,0 4,6 41 - 0,0 145 1.024,2
20:05 16,1 11,7 14,0 75,0 4,7 38 - 0,0 144 1.024,2
20:04 16,1 11,7 14,0 75,0 5,1 31 - 0,0 152 1.024,3
20:03 16,1 11,7 14,0 75,0 6,2 24 - 0,0 154 1.024,2
20:02 16,2 11,7 14,0 74,6 6,4 17 - 0,0 157 1.024,3
20:00 16,2 11,6 14,0 74,0 6,2 10 - 0,0 162 1.024,4
 
19:59 16,3 11,8 14,2 74,7 5,8 7 - 0,0 163 1.024,4
19:58 16,3 11,9 14,2 75,0 4,8 8 - 0,0 164 1.024,4
19:57 16,3 11,7 14,1 74,1 4,5 11 - 0,0 167 1.024,4
19:56 16,3 11,7 14,1 74,0 4,9 15 - 0,0 167 1.024,4
19:55 16,3 11,7 14,1 74,0 6,0 21 - 0,0 170 1.024,4
19:54 16,3 11,7 14,1 74,0 5,7 28 - 0,0 172 1.024,4
19:53 16,3 11,7 14,1 74,0 5,3 33 - 0,0 177 1.024,4
19:52 16,3 11,7 14,1 74,0 5,4 35 9,4 0,0 182 1.024,4
19:51 16,4 11,8 14,2 74,0 6,3 33 - 0,0 186 1.024,4
19:50 16,4 11,8 14,2 74,0 5,6 29 - 0,0 187 1.024,5
19:48 16,5 11,8 14,3 74,0 5,5 23 - 0,0 192 1.024,4
19:47 16,5 11,8 14,3 74,0 5,8 16 - 0,0 195 1.024,4
19:46 16,5 11,8 14,3 74,0 5,8 10 - 0,0 198 1.024,4
19:45 16,5 11,8 14,2 73,9 6,2 7 - 0,0 201 1.024,4
19:44 16,5 11,6 14,1 73,0 6,0 6 - 0,0 203 1.024,4
19:42 16,6 11,7 14,2 73,0 6,0 6 - 0,0 207 1.024,4
19:41 16,7 11,8 14,3 73,0 5,8 7 - 0,0 208 1.024,4
19:40 16,7 11,9 14,3 73,1 5,7 8 - 0,0 210 1.024,4
19:39 16,8 12,1 14,5 74,0 5,6 10 - 0,0 214 1.024,5
19:38 16,7 12,0 14,5 74,0 5,0 14 - 0,0 216 1.024,4
19:37 16,7 11,9 14,4 73,5 4,5 21 - 0,0 218 1.024,4
19:36 16,7 11,8 14,3 73,0 4,8 26 - 0,0 220 1.024,4
19:35 16,7 11,8 14,3 73,0 5,5 28 - 0,0 221 1.024,4
19:34 16,7 11,8 14,3 73,0 5,1 28 - 0,0 221 1.024,4
19:33 16,7 11,8 14,3 73,0 5,3 26 - 0,0 221 1.024,4
19:32 16,8 11,9 14,4 72,7 6,3 22 - 0,0 220 1.024,4
19:31 16,8 11,7 14,3 72,0 6,4 18 - 0,0 218 1.024,5
19:29 16,9 11,8 14,4 72,0 6,7 15 - 0,0 222 1.024,4
19:28 17,0 11,9 14,5 72,0 7,2 12 - 0,0 229 1.024,5
19:27 17,0 11,9 14,5 72,0 6,1 10 - 0,0 237 1.024,5
19:26 17,0 11,9 14,5 72,0 6,1 44 - 0,0 241 1.024,5
19:25 17,1 12,0 14,6 72,0 6,9 355 - 0,0 244 1.024,5
19:23 17,2 12,3 14,8 73,0 5,9 22 - 0,0 250 1.024,5
19:21 17,1 12,0 14,6 72,0 5,4 30 - 0,0 241 1.024,5
19:20 17,1 12,0 14,6 72,0 6,0 58 - 0,0 238 1.024,4
19:19 17,1 11,9 14,5 71,3 5,8 360 - 0,0 237 1.024,5
19:18 17,1 11,8 14,4 71,0 7,1 11 - 0,0 233 1.024,4
19:17 17,2 11,9 14,5 71,0 7,0 360 - 0,0 228 1.024,4
19:16 17,3 12,0 14,6 71,0 6,6 13 - 0,0 236 1.024,5
19:15 17,3 12,0 14,6 71,0 7,2 346 - 0,0 249 1.024,4
19:12 17,4 12,3 14,9 72,0 6,7 42 - 0,0 258 1.024,5
19:11 17,4 12,3 14,9 72,0 5,7 29 - 0,0 263 1.024,5
19:10 17,3 12,2 14,8 72,0 5,6 5 - 0,0 274 1.024,5